Temperatura - Umidità - Pioggia orarie dal 21-01-2020 al 29-01-2020

Dati orari da stazione meteo dal 21-01-2020 al 29-01-2020

Nome Stazione Data Ora Temperatura [°C] Umidità [%] Pioggia [mm] Pressione[hPa]
Sant'Anna di Vinadio 21-01-2020 01:00 -8.8 46 0 1030.3
Sant'Anna di Vinadio 21-01-2020 01:10 -8.8 46 0 1030.2
Sant'Anna di Vinadio 21-01-2020 01:20 -8.9 46 0 1030.2
Sant'Anna di Vinadio 21-01-2020 01:30 -8.8 45 0 1030.1
Sant'Anna di Vinadio 21-01-2020 01:40 -8.7 45 0 1030
Sant'Anna di Vinadio 21-01-2020 01:50 -8.6 44 0 1030
Sant'Anna di Vinadio 21-01-2020 02:00 -8.4 43 0 1029.9
Sant'Anna di Vinadio 21-01-2020 02:10 -8.4 41 0 1029.9
Sant'Anna di Vinadio 21-01-2020 02:20 -8.4 40 0 1029.9
Sant'Anna di Vinadio 21-01-2020 02:30 -8.4 40 0 1030
Sant'Anna di Vinadio 21-01-2020 02:40 -8.4 42 0 1029.9
Sant'Anna di Vinadio 21-01-2020 02:50 -8.1 39 0 1029.8
Sant'Anna di Vinadio 21-01-2020 03:00 -8.2 41 0 1029.8
Sant'Anna di Vinadio 21-01-2020 03:10 -8.1 40 0 1029.8
Sant'Anna di Vinadio 21-01-2020 03:20 -8 39 0 1029.7
Sant'Anna di Vinadio 21-01-2020 03:30 -8 38 0 1029.6
Sant'Anna di Vinadio 21-01-2020 03:40 -7.9 37 0 1029.6
Sant'Anna di Vinadio 21-01-2020 03:50 -8 37 0 1029.6
Sant'Anna di Vinadio 21-01-2020 04:00 -7.9 38 0 1029.5
Sant'Anna di Vinadio 21-01-2020 04:10 -7.8 37 0 1029.5
Sant'Anna di Vinadio 21-01-2020 04:20 -7.9 38 0 1029.4
Sant'Anna di Vinadio 21-01-2020 04:30 -7.8 38 0 1029.4
Sant'Anna di Vinadio 21-01-2020 04:40 -7.7 37 0 1029.4
Sant'Anna di Vinadio 21-01-2020 04:50 -7.7 37 0 1029.4
Sant'Anna di Vinadio 21-01-2020 05:00 -7.7 38 0 1029.5
Sant'Anna di Vinadio 21-01-2020 05:10 -7.7 38 0 1029.4
Sant'Anna di Vinadio 21-01-2020 05:20 -7.7 38 0 1029.5
Sant'Anna di Vinadio 21-01-2020 05:30 -7.8 38 0 1029.5
Sant'Anna di Vinadio 21-01-2020 05:40 -7.8 38 0 1029.5
Sant'Anna di Vinadio 21-01-2020 05:50 -7.8 38 0 1029.4
Sant'Anna di Vinadio 21-01-2020 06:00 -7.7 38 0 1029.4
Sant'Anna di Vinadio 21-01-2020 06:10 -7.7 37 0 1029.4
Sant'Anna di Vinadio 21-01-2020 06:20 -7.8 38 0 1029.4
Sant'Anna di Vinadio 21-01-2020 06:30 -7.7 37 0 1029.4
Sant'Anna di Vinadio 21-01-2020 06:40 -7.8 38 0 1029.4
Sant'Anna di Vinadio 21-01-2020 06:50 -7.8 38 0 1029.4
Sant'Anna di Vinadio 21-01-2020 07:00 -7.9 38 0 1029.4
Sant'Anna di Vinadio 21-01-2020 07:10 -7.9 39 0 1029.4
Sant'Anna di Vinadio 21-01-2020 07:20 -7.6 39 0 1029.5
Sant'Anna di Vinadio 21-01-2020 07:30 -7.5 38 0 1029.6
Sant'Anna di Vinadio 21-01-2020 07:40 -7.5 38 0 1029.6
Sant'Anna di Vinadio 21-01-2020 07:50 -7.4 37 0 1029.5
Sant'Anna di Vinadio 21-01-2020 08:00 -7.1 37 0 1029.6
Sant'Anna di Vinadio 21-01-2020 08:10 -7 36 0 1029.6
Sant'Anna di Vinadio 21-01-2020 08:20 -6.9 37 0 1029.6
Sant'Anna di Vinadio 21-01-2020 08:30 -6.8 36 0 1029.7
Sant'Anna di Vinadio 21-01-2020 08:40 -6.4 37 0 1029.6
Sant'Anna di Vinadio 21-01-2020 08:50 -6.2 37 0 1029.6
Sant'Anna di Vinadio 21-01-2020 09:00 -5.9 37 0 1029.7
Sant'Anna di Vinadio 21-01-2020 09:10 -5.8 38 0 1029.7
Sant'Anna di Vinadio 21-01-2020 09:20 -6.7 38 0 1029.6
Sant'Anna di Vinadio 21-01-2020 09:30 -6.5 37 0 1029.6
Sant'Anna di Vinadio 21-01-2020 09:40 -6.3 37 0 1029.5
Sant'Anna di Vinadio 21-01-2020 09:50 -6.3 37 0 1029.6
Sant'Anna di Vinadio 21-01-2020 10:00 -6.3 37 0 1029.5
Sant'Anna di Vinadio 21-01-2020 10:10 -6 36 0 1029.6
Sant'Anna di Vinadio 21-01-2020 10:20 -5.2 36 0 1029.7
Sant'Anna di Vinadio 21-01-2020 10:30 -5 34 0 1029.8
Sant'Anna di Vinadio 21-01-2020 10:40 -4.4 34 0 1029.8
Sant'Anna di Vinadio 21-01-2020 10:50 -4 33 0 1030
Sant'Anna di Vinadio 21-01-2020 11:00 -3.7 32 0 1029.9
Sant'Anna di Vinadio 21-01-2020 11:10 -3.3 32 0 1029.8
Sant'Anna di Vinadio 21-01-2020 11:20 -2.9 29 0 1029.8
Sant'Anna di Vinadio 21-01-2020 11:30 -2.4 29 0 1029.8
Sant'Anna di Vinadio 21-01-2020 11:40 -2 30 0 1029.7
Sant'Anna di Vinadio 21-01-2020 11:50 -1.9 29 0 1029.7
Sant'Anna di Vinadio 21-01-2020 12:00 -1.9 30 0 1029.7
Sant'Anna di Vinadio 21-01-2020 12:10 -1.5 28 0 1029.6
Sant'Anna di Vinadio 21-01-2020 12:20 -1.5 28 0 1029.5
Sant'Anna di Vinadio 21-01-2020 12:30 -1.2 26 0 1029.4
Sant'Anna di Vinadio 21-01-2020 12:40 -1.1 25 0 1029.4
Sant'Anna di Vinadio 21-01-2020 12:50 -1.1 25 0 1029.3
Sant'Anna di Vinadio 21-01-2020 13:00 -1.2 25 0 1029.1
Sant'Anna di Vinadio 21-01-2020 13:10 -1.2 25 0 1029
Sant'Anna di Vinadio 21-01-2020 13:20 -1.1 26 0 1029.1
Sant'Anna di Vinadio 21-01-2020 13:30 -1.1 25 0 1029
Sant'Anna di Vinadio 21-01-2020 13:40 -1.5 24 0 1028.8
Sant'Anna di Vinadio 21-01-2020 13:50 -1.4 23 0 1028.8
Sant'Anna di Vinadio 21-01-2020 14:00 -1.4 24 0 1028.7
Sant'Anna di Vinadio 21-01-2020 14:10 -1.7 24 0 1028.6
Sant'Anna di Vinadio 21-01-2020 14:20 -1.6 23 0 1028.6
Sant'Anna di Vinadio 21-01-2020 14:30 -1.7 25 0 1028.5
Sant'Anna di Vinadio 21-01-2020 14:40 -2 25 0 1028.5
Sant'Anna di Vinadio 21-01-2020 14:50 -1.9 26 0 1028.5
Sant'Anna di Vinadio 21-01-2020 15:00 -1.8 26 0 1028.4
Sant'Anna di Vinadio 21-01-2020 15:10 -1.6 29 0 1028.4
Sant'Anna di Vinadio 21-01-2020 15:20 -2.3 28 0 1028.4
Sant'Anna di Vinadio 21-01-2020 15:30 -2.6 30 0 1028.4
Sant'Anna di Vinadio 21-01-2020 15:40 -2.2 28 0 1028.3
Sant'Anna di Vinadio 21-01-2020 15:50 -2 26 0 1028.3
Sant'Anna di Vinadio 21-01-2020 16:00 -1.8 22 0 1028.2
Sant'Anna di Vinadio 21-01-2020 16:10 -1.8 23 0 1028.2
Sant'Anna di Vinadio 21-01-2020 16:20 -1.8 22 0 1028.3
Sant'Anna di Vinadio 21-01-2020 16:30 -1.7 22 0 1028.1
Sant'Anna di Vinadio 21-01-2020 16:40 -1.7 20 0 1028
Sant'Anna di Vinadio 21-01-2020 16:50 -1.7 21 0 1028
Sant'Anna di Vinadio 21-01-2020 17:00 -1.8 22 0 1028
Sant'Anna di Vinadio 21-01-2020 17:10 -1.8 21 0 1028
Sant'Anna di Vinadio 21-01-2020 17:20 -1.8 21 0 1028
Sant'Anna di Vinadio 21-01-2020 17:30 -1.8 22 0 1028
Sant'Anna di Vinadio 21-01-2020 17:40 -1.8 21 0 1028
Sant'Anna di Vinadio 21-01-2020 17:50 -1.8 23 0 1028.1
Sant'Anna di Vinadio 21-01-2020 18:00 -1.9 24 0 1028.1
Sant'Anna di Vinadio 21-01-2020 18:10 -2 25 0 1028.1
Sant'Anna di Vinadio 21-01-2020 18:20 -1.9 21 0 1028
Sant'Anna di Vinadio 21-01-2020 18:30 -2 21 0 1028.1
Sant'Anna di Vinadio 21-01-2020 18:40 -1.9 20 0 1028.2
Sant'Anna di Vinadio 21-01-2020 18:50 -1.9 17 0 1028.2
Sant'Anna di Vinadio 21-01-2020 19:00 -1.9 25 0 1028.3
Sant'Anna di Vinadio 21-01-2020 19:10 -2.8 29 0 1028.3
Sant'Anna di Vinadio 21-01-2020 19:20 -2.7 27 0 1028.3
Sant'Anna di Vinadio 21-01-2020 19:30 -2.5 31 0 1028.4
Sant'Anna di Vinadio 21-01-2020 19:40 -3 31 0 1028.4
Sant'Anna di Vinadio 21-01-2020 19:50 -2.7 30 0 1028.5
Sant'Anna di Vinadio 21-01-2020 20:00 -3.4 31 0 1028.6
Sant'Anna di Vinadio 21-01-2020 20:10 -2.6 32 0 1028.6
Sant'Anna di Vinadio 21-01-2020 20:20 -3.2 29 0 1028.6
Sant'Anna di Vinadio 21-01-2020 20:30 -3.3 30 0 1028.6
Sant'Anna di Vinadio 21-01-2020 20:40 -2.9 30 0 1028.6
Sant'Anna di Vinadio 21-01-2020 20:50 -3.1 29 0 1028.6
Sant'Anna di Vinadio 21-01-2020 21:00 -3.4 28 0 1028.5
Sant'Anna di Vinadio 21-01-2020 21:10 -3.6 29 0 1028.6
Sant'Anna di Vinadio 21-01-2020 21:20 -2.7 28 0 1028.6
Sant'Anna di Vinadio 21-01-2020 21:30 -2 19 0 1028.6
Sant'Anna di Vinadio 21-01-2020 21:40 -2.1 24 0 1028.7
Sant'Anna di Vinadio 21-01-2020 21:50 -2.5 25 0 1028.8
Sant'Anna di Vinadio 21-01-2020 22:00 -2.2 22 0 1028.7
Sant'Anna di Vinadio 21-01-2020 22:10 -2.2 22 0 1028.7
Sant'Anna di Vinadio 21-01-2020 22:20 -2.2 22 0 1028.7
Sant'Anna di Vinadio 21-01-2020 22:30 -2.2 23 0 1028.7
Sant'Anna di Vinadio 21-01-2020 22:40 -2.2 25 0 1028.7
Sant'Anna di Vinadio 21-01-2020 22:50 -2.3 25 0 1028.7
Sant'Anna di Vinadio 21-01-2020 23:00 -2.4 25 0 1028.7
Sant'Anna di Vinadio 21-01-2020 23:10 -2.3 25 0 1028.6
Sant'Anna di Vinadio 21-01-2020 23:20 -2.2 25 0 1028.6
Sant'Anna di Vinadio 21-01-2020 23:30 -2.2 25 0 1028.6
Sant'Anna di Vinadio 21-01-2020 23:40 -2.3 25 0 1028.6
Sant'Anna di Vinadio 21-01-2020 23:50 -2.3 26 0 1028.6
Sant'Anna di Vinadio 22-01-2020 00:00 -2.3 27 0 1028.6
Sant'Anna di Vinadio 22-01-2020 00:10 -2.4 28 0 1028.7
Sant'Anna di Vinadio 22-01-2020 00:20 -2.4 27 0 1028.6
Sant'Anna di Vinadio 22-01-2020 00:30 -2.5 28 0 1028.5
Sant'Anna di Vinadio 22-01-2020 00:40 -2.5 27 0 1028.5
Sant'Anna di Vinadio 22-01-2020 00:50 -2.4 27 0 1028.5
Sant'Anna di Vinadio 22-01-2020 01:00 -2.4 26 0 1028.3
Sant'Anna di Vinadio 22-01-2020 01:10 -2.5 27 0 1028.3
Sant'Anna di Vinadio 22-01-2020 01:20 -2.5 27 0 1028.2
Sant'Anna di Vinadio 22-01-2020 01:30 -2.6 27 0 1028.2
Sant'Anna di Vinadio 22-01-2020 01:40 -2.5 27 0 1028.2
Sant'Anna di Vinadio 22-01-2020 01:50 -2.5 27 0 1028.1
Sant'Anna di Vinadio 22-01-2020 02:00 -2.4 28 0 1028
Sant'Anna di Vinadio 22-01-2020 02:10 -2.4 28 0 1028
Sant'Anna di Vinadio 22-01-2020 02:20 -2.3 28 0 1028
Sant'Anna di Vinadio 22-01-2020 02:30 -2.4 28 0 1028
Sant'Anna di Vinadio 22-01-2020 02:40 -2.5 27 0 1028
Sant'Anna di Vinadio 22-01-2020 02:50 -2.2 26 0 1027.9
Sant'Anna di Vinadio 22-01-2020 03:00 -2.2 24 0 1027.8
Sant'Anna di Vinadio 22-01-2020 03:10 -2.2 24 0 1027.7
Sant'Anna di Vinadio 22-01-2020 03:20 -2.2 23 0 1027.6
Sant'Anna di Vinadio 22-01-2020 03:30 -2.2 22 0 1027.5
Sant'Anna di Vinadio 22-01-2020 03:40 -2.1 19 0 1027.5
Sant'Anna di Vinadio 22-01-2020 03:50 -2 18 0 1027.3
Sant'Anna di Vinadio 22-01-2020 04:00 -2 18 0 1027.2
Sant'Anna di Vinadio 22-01-2020 04:10 -2.1 18 0 1027.1
Sant'Anna di Vinadio 22-01-2020 04:20 -2 17 0 1027.1
Sant'Anna di Vinadio 22-01-2020 04:30 -1.9 18 0 1027
Sant'Anna di Vinadio 22-01-2020 04:40 -1.9 17 0 1026.9
Sant'Anna di Vinadio 22-01-2020 04:50 -2 20 0 1026.9
Sant'Anna di Vinadio 22-01-2020 05:00 -2.4 21 0 1026.9
Sant'Anna di Vinadio 22-01-2020 05:10 -2.3 23 0 1026.8
Sant'Anna di Vinadio 22-01-2020 05:20 -2.9 23 0 1026.9
Sant'Anna di Vinadio 22-01-2020 05:30 -2.7 22 0 1026.8
Sant'Anna di Vinadio 22-01-2020 05:40 -2.3 21 0 1026.7
Sant'Anna di Vinadio 22-01-2020 05:50 -2.1 19 0 1026.7
Sant'Anna di Vinadio 22-01-2020 06:00 -1.9 18 0 1026.7
Sant'Anna di Vinadio 22-01-2020 06:10 -1.9 19 0 1026.7
Sant'Anna di Vinadio 22-01-2020 06:20 -2 19 0 1026.7
Sant'Anna di Vinadio 22-01-2020 06:30 -1.8 18 0 1026.6
Sant'Anna di Vinadio 22-01-2020 06:40 -1.6 17 0 1026.6
Sant'Anna di Vinadio 22-01-2020 06:50 -1.6 22 0 1026.6
Sant'Anna di Vinadio 22-01-2020 07:00 -1.8 21 0 1026.6
Sant'Anna di Vinadio 22-01-2020 07:10 -2.1 21 0 1026.6
Sant'Anna di Vinadio 22-01-2020 07:20 -2.1 21 0 1026.6
Sant'Anna di Vinadio 22-01-2020 07:30 -2.1 20 0 1026.5
Sant'Anna di Vinadio 22-01-2020 07:40 -2.1 20 0 1026.6
Sant'Anna di Vinadio 22-01-2020 07:50 -1.9 20 0 1026.6
Sant'Anna di Vinadio 22-01-2020 08:00 -1.8 21 0 1026.7
Sant'Anna di Vinadio 22-01-2020 08:10 -1.7 21 0 1026.7
Sant'Anna di Vinadio 22-01-2020 08:20 -1.6 22 0 1026.8
Sant'Anna di Vinadio 22-01-2020 08:30 -1.4 23 0 1026.8
Sant'Anna di Vinadio 22-01-2020 08:40 -1.2 24 0 1026.7
Sant'Anna di Vinadio 22-01-2020 08:50 -1.3 21 0 1026.8
Sant'Anna di Vinadio 22-01-2020 09:00 -1.2 20 0 1026.8
Sant'Anna di Vinadio 22-01-2020 09:10 -1.2 21 0 1026.8
Sant'Anna di Vinadio 22-01-2020 09:20 -0.9 22 0 1026.7
Sant'Anna di Vinadio 22-01-2020 09:30 -0.3 21 0 1026.8
Sant'Anna di Vinadio 22-01-2020 09:40 -0.3 21 0 1026.9
Sant'Anna di Vinadio 22-01-2020 09:50 -0.4 22 0 1027
Sant'Anna di Vinadio 22-01-2020 10:00 -0.8 22 0 1027.1
Sant'Anna di Vinadio 22-01-2020 10:10 -1.2 24 0 1027.1
Sant'Anna di Vinadio 22-01-2020 10:20 -0.9 25 0 1027.1
Sant'Anna di Vinadio 22-01-2020 10:30 -0.5 25 0 1027.1
Sant'Anna di Vinadio 22-01-2020 10:40 -0.3 25 0 1027.1
Sant'Anna di Vinadio 22-01-2020 10:50 0 23 0 1027.1
Sant'Anna di Vinadio 22-01-2020 11:00 0.6 23 0 1027.1
Sant'Anna di Vinadio 22-01-2020 11:10 1 23 0 1027.1
Sant'Anna di Vinadio 22-01-2020 11:20 0.9 22 0 1027.1
Sant'Anna di Vinadio 22-01-2020 11:30 0.8 23 0 1027
Sant'Anna di Vinadio 22-01-2020 11:40 0.9 25 0 1027.1
Sant'Anna di Vinadio 22-01-2020 11:50 0.9 28 0 1027
Sant'Anna di Vinadio 22-01-2020 12:00 1.2 26 0 1026.9
Sant'Anna di Vinadio 22-01-2020 12:10 1.3 27 0 1026.9
Sant'Anna di Vinadio 22-01-2020 12:20 1.7 28 0 1026.8
Sant'Anna di Vinadio 22-01-2020 12:30 2 30 0 1026.7
Sant'Anna di Vinadio 22-01-2020 12:40 1.5 34 0 1026.6
Sant'Anna di Vinadio 22-01-2020 12:50 1.3 37 0 1026.5
Sant'Anna di Vinadio 22-01-2020 13:00 1.4 37 0 1026.4
Sant'Anna di Vinadio 22-01-2020 13:10 2 37 0 1026.4
Sant'Anna di Vinadio 22-01-2020 13:20 2 38 0 1026.3
Sant'Anna di Vinadio 22-01-2020 13:30 2.3 40 0 1026.2
Sant'Anna di Vinadio 22-01-2020 13:40 2.3 41 0 1026.1
Sant'Anna di Vinadio 22-01-2020 13:50 4.1 39 0 1026
Sant'Anna di Vinadio 22-01-2020 14:00 4 42 0 1025.9
Sant'Anna di Vinadio 22-01-2020 14:10 2.5 45 0 1025.8
Sant'Anna di Vinadio 22-01-2020 14:20 1.8 45 0 1025.7
Sant'Anna di Vinadio 22-01-2020 14:30 2.5 44 0 1025.6
Sant'Anna di Vinadio 22-01-2020 14:40 2.5 43 0 1025.5
Sant'Anna di Vinadio 22-01-2020 14:50 2.8 40 0 1025.5
Sant'Anna di Vinadio 22-01-2020 15:00 2.8 40 0 1025.4
Sant'Anna di Vinadio 22-01-2020 15:10 2.3 41 0 1025.4
Sant'Anna di Vinadio 22-01-2020 15:20 1.8 42 0 1025.5
Sant'Anna di Vinadio 22-01-2020 15:30 1.1 43 0 1025.4
Sant'Anna di Vinadio 22-01-2020 15:40 0.9 43 0 1025.3
Sant'Anna di Vinadio 22-01-2020 15:50 0.9 44 0 1025.3
Sant'Anna di Vinadio 22-01-2020 16:00 0.8 44 0 1025.2
Sant'Anna di Vinadio 22-01-2020 16:10 0.5 45 0 1025.2
Sant'Anna di Vinadio 22-01-2020 16:20 0.4 44 0 1025.2
Sant'Anna di Vinadio 22-01-2020 16:30 0.2 46 0 1025.2
Sant'Anna di Vinadio 22-01-2020 16:40 0.1 46 0 1025.2
Sant'Anna di Vinadio 22-01-2020 16:50 0 46 0 1025.3
Sant'Anna di Vinadio 22-01-2020 17:00 -0.1 45 0 1025.3
Sant'Anna di Vinadio 22-01-2020 17:10 -0.2 45 0 1025.3
Sant'Anna di Vinadio 22-01-2020 17:20 -0.3 45 0 1025.2
Sant'Anna di Vinadio 22-01-2020 17:30 -0.3 45 0 1025.1
Sant'Anna di Vinadio 22-01-2020 17:40 -0.4 45 0 1025.1
Sant'Anna di Vinadio 22-01-2020 17:50 -0.3 44 0 1025.1
Sant'Anna di Vinadio 22-01-2020 18:00 -0.2 44 0 1025
Sant'Anna di Vinadio 22-01-2020 18:10 0 42 0 1025
Sant'Anna di Vinadio 22-01-2020 18:20 0.2 41 0 1024.9
Sant'Anna di Vinadio 22-01-2020 18:30 0.3 41 0 1024.9
Sant'Anna di Vinadio 22-01-2020 18:40 0.2 41 0 1024.9
Sant'Anna di Vinadio 22-01-2020 18:50 0.5 40 0 1024.9
Sant'Anna di Vinadio 22-01-2020 19:00 0.8 39 0 1024.9
Sant'Anna di Vinadio 22-01-2020 19:10 0.9 38 0 1024.9
Sant'Anna di Vinadio 22-01-2020 19:20 0.9 38 0 1024.9
Sant'Anna di Vinadio 22-01-2020 19:30 0.8 38 0 1024.9
Sant'Anna di Vinadio 22-01-2020 19:40 1 38 0 1024.9
Sant'Anna di Vinadio 22-01-2020 19:50 1.2 37 0 1024.8
Sant'Anna di Vinadio 22-01-2020 20:00 1.4 37 0 1024.8
Sant'Anna di Vinadio 22-01-2020 20:10 1.8 36 0 1024.8
Sant'Anna di Vinadio 22-01-2020 20:20 2.2 35 0 1024.8
Sant'Anna di Vinadio 22-01-2020 20:30 2.6 34 0 1024.8
Sant'Anna di Vinadio 22-01-2020 20:40 2.8 33 0 1024.6
Sant'Anna di Vinadio 22-01-2020 20:50 2.9 32 0 1024.6
Sant'Anna di Vinadio 22-01-2020 21:00 2.9 32 0 1024.6
Sant'Anna di Vinadio 22-01-2020 21:10 3.1 31 0 1024.5
Sant'Anna di Vinadio 22-01-2020 21:20 3.1 31 0 1024.5
Sant'Anna di Vinadio 22-01-2020 21:30 3.4 30 0 1024.5
Sant'Anna di Vinadio 22-01-2020 21:40 3.3 31 0 1024.5
Sant'Anna di Vinadio 22-01-2020 21:50 3.5 31 0 1024.4
Sant'Anna di Vinadio 22-01-2020 22:00 3.3 31 0 1024.4
Sant'Anna di Vinadio 22-01-2020 22:10 3.4 31 0 1024.4
Sant'Anna di Vinadio 22-01-2020 22:20 3.4 32 0 1024.5
Sant'Anna di Vinadio 22-01-2020 22:30 3.4 32 0 1024.5
Sant'Anna di Vinadio 22-01-2020 22:40 3.3 32 0 1024.5
Sant'Anna di Vinadio 22-01-2020 22:50 3 32 0 1024.5
Sant'Anna di Vinadio 22-01-2020 23:00 2.9 33 0 1024.5
Sant'Anna di Vinadio 22-01-2020 23:10 3 34 0 1024.5
Sant'Anna di Vinadio 22-01-2020 23:20 3.2 33 0 1024.5
Sant'Anna di Vinadio 22-01-2020 23:30 3.2 32 0 1024.5
Sant'Anna di Vinadio 22-01-2020 23:40 3.2 33 0 1024.4
Sant'Anna di Vinadio 22-01-2020 23:50 3.2 34 0 1024.3
Sant'Anna di Vinadio 23-01-2020 00:00 3 34 0 1024.4
Sant'Anna di Vinadio 23-01-2020 00:10 2.8 35 0 1024.5
Sant'Anna di Vinadio 23-01-2020 00:20 2.4 35 0 1024.5
Sant'Anna di Vinadio 23-01-2020 00:30 2.2 35 0 1024.5
Sant'Anna di Vinadio 23-01-2020 00:40 2.2 35 0 1024.5
Sant'Anna di Vinadio 23-01-2020 00:50 2.2 36 0 1024.5
Sant'Anna di Vinadio 23-01-2020 01:00 1.8 37 0 1024.4
Sant'Anna di Vinadio 23-01-2020 01:10 1.5 38 0 1024.4
Sant'Anna di Vinadio 23-01-2020 01:20 1.5 37 0 1024.3
Sant'Anna di Vinadio 23-01-2020 01:30 1.4 37 0 1024.3
Sant'Anna di Vinadio 23-01-2020 01:40 1.2 36 0 1024.3
Sant'Anna di Vinadio 23-01-2020 01:50 1.1 36 0 1024.1
Sant'Anna di Vinadio 23-01-2020 02:00 1 36 0 1023.9
Sant'Anna di Vinadio 23-01-2020 02:10 1.3 35 0 1023.8
Sant'Anna di Vinadio 23-01-2020 02:20 1.4 33 0 1023.7
Sant'Anna di Vinadio 23-01-2020 02:30 1.6 33 0 1023.7
Sant'Anna di Vinadio 23-01-2020 02:40 1.6 34 0 1023.6
Sant'Anna di Vinadio 23-01-2020 02:50 1.2 35 0 1023.6
Sant'Anna di Vinadio 23-01-2020 03:00 1.3 35 0 1023.5
Sant'Anna di Vinadio 23-01-2020 03:10 1.1 36 0 1023.6
Sant'Anna di Vinadio 23-01-2020 03:20 1 35 0 1023.6
Sant'Anna di Vinadio 23-01-2020 03:30 1.2 34 0 1023.6
Sant'Anna di Vinadio 23-01-2020 03:40 1.5 34 0 1023.6
Sant'Anna di Vinadio 23-01-2020 03:50 1.8 34 0 1023.6
Sant'Anna di Vinadio 23-01-2020 04:00 2 34 0 1023.5
Sant'Anna di Vinadio 23-01-2020 04:10 2.1 33 0 1023.5
Sant'Anna di Vinadio 23-01-2020 04:20 2.1 33 0 1023.5
Sant'Anna di Vinadio 23-01-2020 04:30 2.2 33 0 1023.3
Sant'Anna di Vinadio 23-01-2020 04:40 2.2 32 0 1023.4
Sant'Anna di Vinadio 23-01-2020 04:50 2.2 31 0 1023.3
Sant'Anna di Vinadio 23-01-2020 05:00 2.3 31 0 1023.3
Sant'Anna di Vinadio 23-01-2020 05:10 2.2 32 0 1023.3
Sant'Anna di Vinadio 23-01-2020 05:20 2.3 31 0 1023.3
Sant'Anna di Vinadio 23-01-2020 05:30 2.5 31 0 1023.2
Sant'Anna di Vinadio 23-01-2020 05:40 2.4 31 0 1023.2
Sant'Anna di Vinadio 23-01-2020 05:50 2.3 31 0 1023.1
Sant'Anna di Vinadio 23-01-2020 06:00 2.3 32 0 1023.2
Sant'Anna di Vinadio 23-01-2020 06:10 2.2 31 0 1023.2
Sant'Anna di Vinadio 23-01-2020 06:20 2.1 32 0 1023.1
Sant'Anna di Vinadio 23-01-2020 06:30 2.1 32 0 1023.2
Sant'Anna di Vinadio 23-01-2020 06:40 1.7 33 0 1023.2
Sant'Anna di Vinadio 23-01-2020 06:50 1.5 34 0 1023.3
Sant'Anna di Vinadio 23-01-2020 07:00 1.2 36 0 1023.4
Sant'Anna di Vinadio 23-01-2020 07:10 1 37 0 1023.5
Sant'Anna di Vinadio 23-01-2020 07:20 0.7 37 0 1023.6
Sant'Anna di Vinadio 23-01-2020 07:30 0.6 38 0 1023.6
Sant'Anna di Vinadio 23-01-2020 07:40 0.5 38 0 1023.7
Sant'Anna di Vinadio 23-01-2020 07:50 0.3 40 0 1023.8
Sant'Anna di Vinadio 23-01-2020 08:00 -0.1 41 0 1023.8
Sant'Anna di Vinadio 23-01-2020 08:10 -0.2 41 0 1023.8
Sant'Anna di Vinadio 23-01-2020 08:20 0 39 0 1023.9
Sant'Anna di Vinadio 23-01-2020 08:30 0.2 38 0 1023.9
Sant'Anna di Vinadio 23-01-2020 08:40 0.1 38 0 1023.9
Sant'Anna di Vinadio 23-01-2020 08:50 0.7 38 0 1024
Sant'Anna di Vinadio 23-01-2020 09:00 1.5 35 0 1024
Sant'Anna di Vinadio 23-01-2020 09:10 2.1 33 0 1024
Sant'Anna di Vinadio 23-01-2020 09:20 2.2 33 0 1023.9
Sant'Anna di Vinadio 23-01-2020 09:30 1.5 34 0 1023.9
Sant'Anna di Vinadio 23-01-2020 09:40 1.7 34 0 1023.9
Sant'Anna di Vinadio 23-01-2020 09:50 2.5 32 0 1023.8
Sant'Anna di Vinadio 23-01-2020 10:00 4.8 30 0 1023.8
Sant'Anna di Vinadio 23-01-2020 10:10 5.9 25 0 1023.8
Sant'Anna di Vinadio 23-01-2020 10:20 6.2 27 0 1023.8
Sant'Anna di Vinadio 23-01-2020 10:30 5.3 25 0 1023.9
Sant'Anna di Vinadio 23-01-2020 10:40 4.6 27 0 1023.8
Sant'Anna di Vinadio 23-01-2020 10:50 5.3 28 0 1023.8
Sant'Anna di Vinadio 23-01-2020 11:00 5.7 26 0 1023.9
Sant'Anna di Vinadio 23-01-2020 11:10 5.5 26 0 1024
Sant'Anna di Vinadio 23-01-2020 11:20 4.2 28 0 1024
Sant'Anna di Vinadio 23-01-2020 11:30 4.2 28 0 1023.9
Sant'Anna di Vinadio 23-01-2020 11:40 4.2 29 0 1023.8
Sant'Anna di Vinadio 23-01-2020 11:50 3.4 30 0 1023.8
Sant'Anna di Vinadio 23-01-2020 12:00 4.4 29 0 1023.7
Sant'Anna di Vinadio 23-01-2020 12:10 5 29 0 1023.6
Sant'Anna di Vinadio 23-01-2020 12:20 4 32 0 1023.5
Sant'Anna di Vinadio 23-01-2020 12:30 3.5 34 0 1023.4
Sant'Anna di Vinadio 23-01-2020 12:40 2.9 35 0 1023.4
Sant'Anna di Vinadio 23-01-2020 12:50 3 35 0 1023.3
Sant'Anna di Vinadio 23-01-2020 13:00 2.8 35 0 1023.3
Sant'Anna di Vinadio 23-01-2020 13:10 3 35 0 1023.2
Sant'Anna di Vinadio 23-01-2020 13:20 2.7 34 0 1023.2
Sant'Anna di Vinadio 23-01-2020 13:30 2.4 35 0 1023.2
Sant'Anna di Vinadio 23-01-2020 13:40 2.6 34 0 1023.2
Sant'Anna di Vinadio 23-01-2020 13:50 3 33 0 1023.2
Sant'Anna di Vinadio 23-01-2020 14:00 2.9 37 0 1023.1
Sant'Anna di Vinadio 23-01-2020 14:10 1.5 38 0 1022.9
Sant'Anna di Vinadio 23-01-2020 14:20 2.5 34 0 1022.8
Sant'Anna di Vinadio 23-01-2020 14:30 2.4 33 0 1022.7
Sant'Anna di Vinadio 23-01-2020 14:40 2.2 33 0 1022.6
Sant'Anna di Vinadio 23-01-2020 14:50 1.6 35 0 1022.6
Sant'Anna di Vinadio 23-01-2020 15:00 1.1 35 0 1022.5
Sant'Anna di Vinadio 23-01-2020 15:10 1.1 35 0 1022.4
Sant'Anna di Vinadio 23-01-2020 15:20 1 35 0 1022.3
Sant'Anna di Vinadio 23-01-2020 15:30 0.7 36 0 1022.2
Sant'Anna di Vinadio 23-01-2020 15:40 0.4 36 0 1022.2
Sant'Anna di Vinadio 23-01-2020 15:50 0.4 34 0 1022.2
Sant'Anna di Vinadio 23-01-2020 16:00 0.4 32 0 1022.1
Sant'Anna di Vinadio 23-01-2020 16:10 0.5 32 0 1022
Sant'Anna di Vinadio 23-01-2020 16:20 0.3 33 0 1022
Sant'Anna di Vinadio 23-01-2020 16:30 0.3 35 0 1022.1
Sant'Anna di Vinadio 23-01-2020 16:40 -0.2 38 0 1022.1
Sant'Anna di Vinadio 23-01-2020 16:50 -0.6 38 0 1022.1
Sant'Anna di Vinadio 23-01-2020 17:00 -0.7 38 0 1022.1
Sant'Anna di Vinadio 23-01-2020 17:10 -0.8 39 0 1022.1
Sant'Anna di Vinadio 23-01-2020 17:20 -0.8 38 0 1022.1
Sant'Anna di Vinadio 23-01-2020 17:30 -0.8 37 0 1022.1
Sant'Anna di Vinadio 23-01-2020 17:40 -1 40 0 1022.2
Sant'Anna di Vinadio 23-01-2020 17:50 -1.4 40 0 1022.3
Sant'Anna di Vinadio 23-01-2020 18:00 -1.6 41 0 1022.3
Sant'Anna di Vinadio 23-01-2020 18:10 -1.8 41 0 1022.3
Sant'Anna di Vinadio 23-01-2020 18:20 -1.8 40 0 1022.4
Sant'Anna di Vinadio 23-01-2020 18:30 -1.9 42 0 1022.4
Sant'Anna di Vinadio 23-01-2020 18:40 -1.9 42 0 1022.4
Sant'Anna di Vinadio 23-01-2020 18:50 -1.9 42 0 1022.5
Sant'Anna di Vinadio 23-01-2020 19:00 -1.8 39 0 1022.5
Sant'Anna di Vinadio 23-01-2020 19:10 -1.7 38 0 1022.5
Sant'Anna di Vinadio 23-01-2020 19:20 -1.7 39 0 1022.4
Sant'Anna di Vinadio 23-01-2020 19:30 -1.8 39 0 1022.5
Sant'Anna di Vinadio 23-01-2020 19:40 -1.6 36 0 1022.5
Sant'Anna di Vinadio 23-01-2020 19:50 -1.5 37 0 1022.4
Sant'Anna di Vinadio 23-01-2020 20:00 -1.5 36 0 1022.4
Sant'Anna di Vinadio 23-01-2020 20:10 -1.6 36 0 1022.4
Sant'Anna di Vinadio 23-01-2020 20:20 -1.5 35 0 1022.4
Sant'Anna di Vinadio 23-01-2020 20:30 -1.5 35 0 1022.4
Sant'Anna di Vinadio 23-01-2020 20:40 -1.3 32 0 1022.3
Sant'Anna di Vinadio 23-01-2020 20:50 -1.3 32 0 1022.3
Sant'Anna di Vinadio 23-01-2020 21:00 -1.4 32 0 1022.3
Sant'Anna di Vinadio 23-01-2020 21:10 -1.2 32 0 1022.3
Sant'Anna di Vinadio 23-01-2020 21:20 -1.2 31 0 1022.3
Sant'Anna di Vinadio 23-01-2020 21:30 -1.5 32 0 1022.3
Sant'Anna di Vinadio 23-01-2020 21:40 -1.5 31 0 1022.4
Sant'Anna di Vinadio 23-01-2020 21:50 -1.7 31 0 1022.4
Sant'Anna di Vinadio 23-01-2020 22:00 -1.6 32 0 1022.3
Sant'Anna di Vinadio 23-01-2020 22:10 -1.5 32 0 1022.3
Sant'Anna di Vinadio 23-01-2020 22:20 -1.5 32 0 1022.2
Sant'Anna di Vinadio 23-01-2020 22:30 -1.6 33 0 1022.1
Sant'Anna di Vinadio 23-01-2020 22:40 -1.5 32 0 1022.1
Sant'Anna di Vinadio 23-01-2020 22:50 -1.5 33 0 1022.1
Sant'Anna di Vinadio 23-01-2020 23:00 -1.4 33 0 1022.1
Sant'Anna di Vinadio 23-01-2020 23:10 -1.2 32 0 1022.1
Sant'Anna di Vinadio 23-01-2020 23:20 -1.4 33 0 1022
Sant'Anna di Vinadio 23-01-2020 23:30 -1.4 33 0 1021.9
Sant'Anna di Vinadio 23-01-2020 23:40 -1.3 32 0 1021.9
Sant'Anna di Vinadio 23-01-2020 23:50 -1.3 32 0 1021.9
Sant'Anna di Vinadio 24-01-2020 00:00 -1.1 32 0 1021.9
Sant'Anna di Vinadio 24-01-2020 00:10 -1.1 34 0 1022
Sant'Anna di Vinadio 24-01-2020 00:20 -1.3 35 0 1021.9
Sant'Anna di Vinadio 24-01-2020 00:30 -1.3 35 0 1021.9
Sant'Anna di Vinadio 24-01-2020 00:40 -1.3 35 0 1021.9
Sant'Anna di Vinadio 24-01-2020 00:50 -1 32 0 1021.9
Sant'Anna di Vinadio 24-01-2020 01:00 -1 34 0 1021.9
Sant'Anna di Vinadio 24-01-2020 01:10 -1.1 33 0 1021.8
Sant'Anna di Vinadio 24-01-2020 01:20 -1.1 34 0 1021.7
Sant'Anna di Vinadio 24-01-2020 01:30 -1.2 35 0 1021.5
Sant'Anna di Vinadio 24-01-2020 01:40 -1.4 39 0 1021.3
Sant'Anna di Vinadio 24-01-2020 01:50 -1.7 40 0 1021.2
Sant'Anna di Vinadio 24-01-2020 02:00 -1.7 40 0 1021.1
Sant'Anna di Vinadio 24-01-2020 02:10 -1.8 40 0 1021
Sant'Anna di Vinadio 24-01-2020 02:20 -1.9 41 0 1020.9
Sant'Anna di Vinadio 24-01-2020 02:30 -1.9 42 0 1020.9
Sant'Anna di Vinadio 24-01-2020 02:40 -1.7 42 0 1020.8
Sant'Anna di Vinadio 24-01-2020 02:50 -1.8 46 0 1020.7
Sant'Anna di Vinadio 24-01-2020 03:00 -2 48 0 1020.6
Sant'Anna di Vinadio 24-01-2020 03:10 -2.2 46 0 1020.7
Sant'Anna di Vinadio 24-01-2020 03:20 -1.8 46 0 1020.6
Sant'Anna di Vinadio 24-01-2020 03:30 -1.9 45 0 1020.5
Sant'Anna di Vinadio 24-01-2020 03:40 -2 45 0 1020.3
Sant'Anna di Vinadio 24-01-2020 03:50 -2 44 0 1020.2
Sant'Anna di Vinadio 24-01-2020 04:00 -1.9 44 0 1020.1
Sant'Anna di Vinadio 24-01-2020 04:10 -1.8 45 0 1020.2
Sant'Anna di Vinadio 24-01-2020 04:20 -1.6 44 0 1020
Sant'Anna di Vinadio 24-01-2020 04:30 -1.6 45 0 1019.9
Sant'Anna di Vinadio 24-01-2020 04:40 -1.6 45 0 1019.9
Sant'Anna di Vinadio 24-01-2020 04:50 -1.6 44 0 1019.9
Sant'Anna di Vinadio 24-01-2020 05:00 -1.6 44 0 1019.8
Sant'Anna di Vinadio 24-01-2020 05:10 -1.8 44 0 1019.7
Sant'Anna di Vinadio 24-01-2020 05:20 -1.7 44 0 1019.8
Sant'Anna di Vinadio 24-01-2020 05:30 -1.7 44 0 1019.8
Sant'Anna di Vinadio 24-01-2020 05:40 -1.7 44 0 1019.9
Sant'Anna di Vinadio 24-01-2020 05:50 -1.6 43 0 1019.9
Sant'Anna di Vinadio 24-01-2020 06:00 -1.4 43 0 1019.8
Sant'Anna di Vinadio 24-01-2020 06:10 -1.4 42 0 1019.7
Sant'Anna di Vinadio 24-01-2020 06:20 -1.5 43 0 1019.6
Sant'Anna di Vinadio 24-01-2020 06:30 -1.6 43 0 1019.6
Sant'Anna di Vinadio 24-01-2020 06:40 -1.6 43 0 1019.6
Sant'Anna di Vinadio 24-01-2020 06:50 -1.7 43 0 1019.6
Sant'Anna di Vinadio 24-01-2020 07:00 -1.2 42 0 1019.5
Sant'Anna di Vinadio 24-01-2020 07:10 -1.2 42 0 1019.5
Sant'Anna di Vinadio 24-01-2020 07:20 -0.8 41 0 1019.5
Sant'Anna di Vinadio 24-01-2020 07:30 -1.2 41 0 1019.5
Sant'Anna di Vinadio 24-01-2020 07:40 -1.1 39 0 1019.6
Sant'Anna di Vinadio 24-01-2020 07:50 -0.9 40 0 1019.5
Sant'Anna di Vinadio 24-01-2020 08:00 -0.6 36 0 1019.6
Sant'Anna di Vinadio 24-01-2020 08:10 -0.4 35 0 1019.6
Sant'Anna di Vinadio 24-01-2020 08:20 -0.7 36 0 1019.7
Sant'Anna di Vinadio 24-01-2020 08:30 -0.9 38 0 1019.7
Sant'Anna di Vinadio 24-01-2020 08:40 -0.5 38 0 1019.7
Sant'Anna di Vinadio 24-01-2020 08:50 -0.5 35 0 1019.8
Sant'Anna di Vinadio 24-01-2020 09:00 -0.8 39 0 1019.8
Sant'Anna di Vinadio 24-01-2020 09:10 -1.1 40 0 1019.8
Sant'Anna di Vinadio 24-01-2020 09:20 -1 40 0 1019.9
Sant'Anna di Vinadio 24-01-2020 09:30 -0.9 39 0 1019.9
Sant'Anna di Vinadio 24-01-2020 09:40 -0.8 39 0 1019.8
Sant'Anna di Vinadio 24-01-2020 09:50 -0.6 39 0 1019.8
Sant'Anna di Vinadio 24-01-2020 10:00 -0.5 33 0 1019.8
Sant'Anna di Vinadio 24-01-2020 10:10 -0.4 30 0 1019.9
Sant'Anna di Vinadio 24-01-2020 10:20 -0.2 30 0 1019.9
Sant'Anna di Vinadio 24-01-2020 10:30 -0.1 41 0 1019.9
Sant'Anna di Vinadio 24-01-2020 10:40 -0.5 38 0 1020
Sant'Anna di Vinadio 24-01-2020 10:50 -0.4 30 0 1020
Sant'Anna di Vinadio 24-01-2020 11:00 -0.3 43 0 1020
Sant'Anna di Vinadio 24-01-2020 11:10 -0.7 42 0 1020
Sant'Anna di Vinadio 24-01-2020 11:20 -0.3 36 0 1020
Sant'Anna di Vinadio 24-01-2020 11:30 -0.3 39 0 1020
Sant'Anna di Vinadio 24-01-2020 11:40 0 36 0 1020
Sant'Anna di Vinadio 24-01-2020 11:50 0.8 36 0 1019.9
Sant'Anna di Vinadio 24-01-2020 12:00 0 35 0 1019.8
Sant'Anna di Vinadio 24-01-2020 12:10 0.2 34 0 1019.8
Sant'Anna di Vinadio 24-01-2020 12:20 0.6 35 0 1019.7
Sant'Anna di Vinadio 24-01-2020 12:30 0.5 34 0 1019.6
Sant'Anna di Vinadio 24-01-2020 12:40 0.2 34 0 1019.5
Sant'Anna di Vinadio 24-01-2020 12:50 0.3 37 0 1019.4
Sant'Anna di Vinadio 24-01-2020 13:00 -0.3 35 0 1019.3
Sant'Anna di Vinadio 24-01-2020 13:10 0.3 36 0 1019.2
Sant'Anna di Vinadio 24-01-2020 13:20 0.4 35 0 1019.1
Sant'Anna di Vinadio 24-01-2020 13:30 0 36 0 1019.1
Sant'Anna di Vinadio 24-01-2020 13:40 0 36 0 1019
Sant'Anna di Vinadio 24-01-2020 13:50 -0.2 38 0 1018.9
Sant'Anna di Vinadio 24-01-2020 14:00 -0.2 40 0 1018.9
Sant'Anna di Vinadio 24-01-2020 14:10 -0.4 45 0 1018.7
Sant'Anna di Vinadio 24-01-2020 14:20 -0.5 46 0 1018.7
Sant'Anna di Vinadio 24-01-2020 14:30 -0.6 44 0 1018.7
Sant'Anna di Vinadio 24-01-2020 14:40 -0.3 41 0 1018.6
Sant'Anna di Vinadio 24-01-2020 14:50 -0.3 41 0 1018.5
Sant'Anna di Vinadio 24-01-2020 15:00 -0.5 41 0 1018.4
Sant'Anna di Vinadio 24-01-2020 15:10 -0.6 39 0 1018.5
Sant'Anna di Vinadio 24-01-2020 15:20 -0.9 40 0 1018.5
Sant'Anna di Vinadio 24-01-2020 15:30 -1 40 0 1018.5
Sant'Anna di Vinadio 24-01-2020 15:40 -1.1 43 0 1018.4
Sant'Anna di Vinadio 24-01-2020 15:50 -1.3 42 0 1018.4
Sant'Anna di Vinadio 24-01-2020 16:00 -1.4 43 0 1018.3
Sant'Anna di Vinadio 24-01-2020 16:10 -1.5 43 0 1018.3
Sant'Anna di Vinadio 24-01-2020 16:20 -1.6 43 0 1018.2
Sant'Anna di Vinadio 24-01-2020 16:30 -1.6 42 0 1018.2
Sant'Anna di Vinadio 24-01-2020 16:40 -1.5 41 0 1018.2
Sant'Anna di Vinadio 24-01-2020 16:50 -1.6 41 0 1018.1
Sant'Anna di Vinadio 24-01-2020 17:00 -1.7 47 0 1018.1
Sant'Anna di Vinadio 24-01-2020 17:10 -2.2 47 0 1018.1
Sant'Anna di Vinadio 24-01-2020 17:20 -2 45 0 1018.1
Sant'Anna di Vinadio 24-01-2020 17:30 -2 44 0 1018.1
Sant'Anna di Vinadio 24-01-2020 17:40 -2.1 44 0 1018.1
Sant'Anna di Vinadio 24-01-2020 17:50 -2 45 0 1018.1
Sant'Anna di Vinadio 24-01-2020 18:00 -2 45 0 1018.2
Sant'Anna di Vinadio 24-01-2020 18:10 -2 46 0 1018.1
Sant'Anna di Vinadio 24-01-2020 18:20 -2.1 45 0 1018.1
Sant'Anna di Vinadio 24-01-2020 18:30 -2.1 45 0 1018.1
Sant'Anna di Vinadio 24-01-2020 18:40 -2.2 49 0 1018.2
Sant'Anna di Vinadio 24-01-2020 18:50 -2.9 53 0 1018.3
Sant'Anna di Vinadio 24-01-2020 19:00 -3.3 53 0 1018.3
Sant'Anna di Vinadio 24-01-2020 19:10 -3.4 51 0 1018.3
Sant'Anna di Vinadio 24-01-2020 19:20 -3.4 52 0 1018.4
Sant'Anna di Vinadio 24-01-2020 19:30 -3.5 53 0 1018.4
Sant'Anna di Vinadio 24-01-2020 19:40 -3.4 51 0 1018.4
Sant'Anna di Vinadio 24-01-2020 19:50 -3.4 52 0 1018.4
Sant'Anna di Vinadio 24-01-2020 20:00 -3.2 52 0 1018.4
Sant'Anna di Vinadio 24-01-2020 20:10 -3.2 51 0 1018.4
Sant'Anna di Vinadio 24-01-2020 20:20 -3.2 52 0 1018.4
Sant'Anna di Vinadio 24-01-2020 20:30 -3.4 52 0 1018.4
Sant'Anna di Vinadio 24-01-2020 20:40 -3.4 51 0 1018.4
Sant'Anna di Vinadio 24-01-2020 20:50 -3.5 51 0 1018.5
Sant'Anna di Vinadio 24-01-2020 21:00 -3.4 51 0 1018.5
Sant'Anna di Vinadio 24-01-2020 21:10 -3.4 52 0 1018.4
Sant'Anna di Vinadio 24-01-2020 21:20 -3.6 55 0 1018.4
Sant'Anna di Vinadio 24-01-2020 21:30 -3.6 56 0 1018.4
Sant'Anna di Vinadio 24-01-2020 21:40 -3.8 57 0 1018.5
Sant'Anna di Vinadio 24-01-2020 21:50 -4 57 0 1018.5
Sant'Anna di Vinadio 24-01-2020 22:00 -4 57 0 1018.5
Sant'Anna di Vinadio 24-01-2020 22:10 -4.1 55 0 1018.4
Sant'Anna di Vinadio 24-01-2020 22:20 -4.2 56 0 1018.4
Sant'Anna di Vinadio 24-01-2020 22:30 -4.2 55 0 1018.4
Sant'Anna di Vinadio 24-01-2020 22:40 -4.2 55 0 1018.3
Sant'Anna di Vinadio 24-01-2020 22:50 -4.2 54 0 1018.3
Sant'Anna di Vinadio 24-01-2020 23:00 -4.2 55 0 1018.4
Sant'Anna di Vinadio 24-01-2020 23:10 -4.3 56 0 1018.4
Sant'Anna di Vinadio 24-01-2020 23:20 -4.4 56 0 1018.3
Sant'Anna di Vinadio 24-01-2020 23:30 -4.4 56 0 1018.3
Sant'Anna di Vinadio 24-01-2020 23:40 -4.3 57 0 1018.3
Sant'Anna di Vinadio 24-01-2020 23:50 -4.6 57 0 1018.2
Sant'Anna di Vinadio 25-01-2020 00:00 -4.6 58 0 1018.2
Sant'Anna di Vinadio 25-01-2020 00:10 -4.7 58 0 1018.1
Sant'Anna di Vinadio 25-01-2020 00:20 -4.6 58 0 1018
Sant'Anna di Vinadio 25-01-2020 00:30 -4.6 58 0 1018
Sant'Anna di Vinadio 25-01-2020 00:40 -4.7 59 0 1018
Sant'Anna di Vinadio 25-01-2020 00:50 -4.9 60 0 1017.9
Sant'Anna di Vinadio 25-01-2020 01:00 -4.9 60 0 1017.9
Sant'Anna di Vinadio 25-01-2020 01:10 -4.9 61 0 1017.8
Sant'Anna di Vinadio 25-01-2020 01:20 -4.8 62 0 1017.7
Sant'Anna di Vinadio 25-01-2020 01:30 -4.8 63 0 1017.6
Sant'Anna di Vinadio 25-01-2020 01:40 -4.9 64 0 1017.6
Sant'Anna di Vinadio 25-01-2020 01:50 -4.9 64 0 1017.6
Sant'Anna di Vinadio 25-01-2020 02:00 -5.1 65 0 1017.6
Sant'Anna di Vinadio 25-01-2020 02:10 -4.7 67 0 1017.5
Sant'Anna di Vinadio 25-01-2020 02:20 -4.3 68 0 1017.5
Sant'Anna di Vinadio 25-01-2020 02:30 -4.3 68 0 1017.5
Sant'Anna di Vinadio 25-01-2020 02:40 -4.3 68 0 1017.5
Sant'Anna di Vinadio 25-01-2020 02:50 -4.1 70 0 1017.5
Sant'Anna di Vinadio 25-01-2020 03:00 -3.7 70 0 1017.4
Sant'Anna di Vinadio 25-01-2020 03:10 -3.3 69 0 1017.3
Sant'Anna di Vinadio 25-01-2020 03:20 -3.4 68 0 1017.3
Sant'Anna di Vinadio 25-01-2020 03:30 -3.3 69 0 1017.2
Sant'Anna di Vinadio 25-01-2020 03:40 -3.6 69 0 1017.2
Sant'Anna di Vinadio 25-01-2020 03:50 -3.1 70 0 1017.1
Sant'Anna di Vinadio 25-01-2020 04:00 -3.1 68 0 1017.1
Sant'Anna di Vinadio 25-01-2020 04:10 -3 69 0 1017
Sant'Anna di Vinadio 25-01-2020 04:20 -3 67 0 1016.9
Sant'Anna di Vinadio 25-01-2020 04:30 -2.9 67 0 1016.8
Sant'Anna di Vinadio 25-01-2020 04:40 -2.8 66 0 1016.8
Sant'Anna di Vinadio 25-01-2020 04:50 -3.3 67 0 1016.8
Sant'Anna di Vinadio 25-01-2020 05:00 -3.5 67 0 1016.8
Sant'Anna di Vinadio 25-01-2020 05:10 -3.7 67 0 1016.8
Sant'Anna di Vinadio 25-01-2020 05:20 -3.8 68 0 1016.9
Sant'Anna di Vinadio 25-01-2020 05:30 -3.8 68 0 1017
Sant'Anna di Vinadio 25-01-2020 05:40 -3.9 68 0 1017
Sant'Anna di Vinadio 25-01-2020 05:50 -3.9 68 0 1016.9
Sant'Anna di Vinadio 25-01-2020 06:00 -3.8 69 0 1016.9
Sant'Anna di Vinadio 25-01-2020 06:10 -3.7 69 0 1016.9
Sant'Anna di Vinadio 25-01-2020 06:20 -3.7 69 0 1016.8
Sant'Anna di Vinadio 25-01-2020 06:30 -3.8 69 0 1016.8
Sant'Anna di Vinadio 25-01-2020 06:40 -3.9 70 0 1016.9
Sant'Anna di Vinadio 25-01-2020 06:50 -3.8 71 0 1016.9
Sant'Anna di Vinadio 25-01-2020 07:00 -3.6 70 0 1016.9
Sant'Anna di Vinadio 25-01-2020 07:10 -3.7 70 0 1017
Sant'Anna di Vinadio 25-01-2020 07:20 -3.8 71 0 1016.9
Sant'Anna di Vinadio 25-01-2020 07:30 -3.8 70 0 1017
Sant'Anna di Vinadio 25-01-2020 07:40 -3.8 70 0 1017.1
Sant'Anna di Vinadio 25-01-2020 07:50 -3.7 70 0 1017.1
Sant'Anna di Vinadio 25-01-2020 08:00 -3.8 70 0 1017.1
Sant'Anna di Vinadio 25-01-2020 08:10 -3.7 70 0 1017.1
Sant'Anna di Vinadio 25-01-2020 08:20 -3.6 69 0 1017.1
Sant'Anna di Vinadio 25-01-2020 08:30 -3.4 68 0 1017.2
Sant'Anna di Vinadio 25-01-2020 08:40 -3.2 67 0 1017.3
Sant'Anna di Vinadio 25-01-2020 08:50 -2.5 67 0 1017.4
Sant'Anna di Vinadio 25-01-2020 09:00 -1.6 64 0 1017.5
Sant'Anna di Vinadio 25-01-2020 09:10 -1.4 60 0 1017.5
Sant'Anna di Vinadio 25-01-2020 09:20 0 60 0 1017.6
Sant'Anna di Vinadio 25-01-2020 09:30 0.2 56 0 1017.7
Sant'Anna di Vinadio 25-01-2020 09:40 -1 59 0 1017.7
Sant'Anna di Vinadio 25-01-2020 09:50 -0.5 59 0 1017.6
Sant'Anna di Vinadio 25-01-2020 10:00 -0.4 57 0 1017.6
Sant'Anna di Vinadio 25-01-2020 10:10 -0.8 58 0 1017.6
Sant'Anna di Vinadio 25-01-2020 10:20 -1 61 0 1017.7
Sant'Anna di Vinadio 25-01-2020 10:30 1 60 0 1017.7
Sant'Anna di Vinadio 25-01-2020 10:40 2.2 54 0 1017.8
Sant'Anna di Vinadio 25-01-2020 10:50 2.3 54 0 1017.8
Sant'Anna di Vinadio 25-01-2020 11:00 3 52 0 1017.8
Sant'Anna di Vinadio 25-01-2020 11:10 3.2 48 0 1017.8
Sant'Anna di Vinadio 25-01-2020 11:20 3.5 46 0 1017.8
Sant'Anna di Vinadio 25-01-2020 11:30 3.7 47 0 1017.9
Sant'Anna di Vinadio 25-01-2020 11:40 3.7 46 0 1017.9
Sant'Anna di Vinadio 25-01-2020 11:50 3.8 47 0 1017.8
Sant'Anna di Vinadio 25-01-2020 12:00 4.4 44 0 1017.8
Sant'Anna di Vinadio 25-01-2020 12:10 4.9 43 0 1017.7
Sant'Anna di Vinadio 25-01-2020 12:20 3.5 46 0 1017.6
Sant'Anna di Vinadio 25-01-2020 12:30 3.1 46 0 1017.5
Sant'Anna di Vinadio 25-01-2020 12:40 3.5 46 0 1017.5
Sant'Anna di Vinadio 25-01-2020 12:50 2.9 49 0 1017.4
Sant'Anna di Vinadio 25-01-2020 13:00 2.3 49 0 1017.3
Sant'Anna di Vinadio 25-01-2020 13:10 2.4 48 0 1017.2
Sant'Anna di Vinadio 25-01-2020 13:20 2.8 49 0 1017.1
Sant'Anna di Vinadio 25-01-2020 13:30 3 46 0 1017
Sant'Anna di Vinadio 25-01-2020 13:40 2.7 46 0 1016.9
Sant'Anna di Vinadio 25-01-2020 13:50 2.4 50 0 1016.9
Sant'Anna di Vinadio 25-01-2020 14:00 1.4 50 0 1016.8
Sant'Anna di Vinadio 25-01-2020 14:10 1.5 52 0 1016.7
Sant'Anna di Vinadio 25-01-2020 14:20 0.8 53 0 1016.7
Sant'Anna di Vinadio 25-01-2020 14:30 0.5 54 0 1016.6
Sant'Anna di Vinadio 25-01-2020 14:40 0.4 54 0 1016.5
Sant'Anna di Vinadio 25-01-2020 14:50 0.1 57 0 1016.5
Sant'Anna di Vinadio 25-01-2020 15:00 0.3 57 0 1016.4
Sant'Anna di Vinadio 25-01-2020 15:10 0.4 57 0 1016.4
Sant'Anna di Vinadio 25-01-2020 15:20 0.3 58 0 1016.4
Sant'Anna di Vinadio 25-01-2020 15:30 0.4 58 0 1016.3
Sant'Anna di Vinadio 25-01-2020 15:40 0.4 58 0 1016.3
Sant'Anna di Vinadio 25-01-2020 15:50 0.3 58 0 1016.3
Sant'Anna di Vinadio 25-01-2020 16:00 0.2 59 0 1016.2
Sant'Anna di Vinadio 25-01-2020 16:10 0.1 60 0 1016.2
Sant'Anna di Vinadio 25-01-2020 16:20 0.1 60 0 1016.2
Sant'Anna di Vinadio 25-01-2020 16:30 0 61 0 1016.1
Sant'Anna di Vinadio 25-01-2020 16:40 -0.2 61 0 1016.1
Sant'Anna di Vinadio 25-01-2020 16:50 -0.3 62 0 1016.1
Sant'Anna di Vinadio 25-01-2020 17:00 -1.5 66 0 1016.1
Sant'Anna di Vinadio 25-01-2020 17:10 -1.1 70 0 1016.1
Sant'Anna di Vinadio 25-01-2020 17:20 -0.8 69 0 1016.1
Sant'Anna di Vinadio 25-01-2020 17:30 -0.8 67 0 1016.1
Sant'Anna di Vinadio 25-01-2020 17:40 -0.9 66 0 1016.1
Sant'Anna di Vinadio 25-01-2020 17:50 -1 67 0 1016.1
Sant'Anna di Vinadio 25-01-2020 18:00 -1.1 67 0 1016.1
Sant'Anna di Vinadio 25-01-2020 18:10 -1.3 69 0 1016.1
Sant'Anna di Vinadio 25-01-2020 18:20 -1.3 68 0 1016.2
Sant'Anna di Vinadio 25-01-2020 18:30 -1.6 66 0 1016.2
Sant'Anna di Vinadio 25-01-2020 18:40 -1.5 67 0 1016.2
Sant'Anna di Vinadio 25-01-2020 18:50 -1.6 68 0 1016.2
Sant'Anna di Vinadio 25-01-2020 19:00 -1.6 68 0 1016.2
Sant'Anna di Vinadio 25-01-2020 19:10 -1.6 68 0 1016.3
Sant'Anna di Vinadio 25-01-2020 19:20 -1.5 68 0 1016.3
Sant'Anna di Vinadio 25-01-2020 19:30 -1.2 66 0 1016.3
Sant'Anna di Vinadio 25-01-2020 19:40 -1.4 64 0 1016.3
Sant'Anna di Vinadio 25-01-2020 19:50 -1.4 65 0 1016.3
Sant'Anna di Vinadio 25-01-2020 20:00 -1.7 66 0 1016.3
Sant'Anna di Vinadio 25-01-2020 20:10 -1.7 64 0 1016.3
Sant'Anna di Vinadio 25-01-2020 20:20 -1.8 62 0 1016.3
Sant'Anna di Vinadio 25-01-2020 20:30 -1.9 61 0 1016.3
Sant'Anna di Vinadio 25-01-2020 20:40 -2.2 62 0 1016.3
Sant'Anna di Vinadio 25-01-2020 20:50 -1.9 64 0 1016.3
Sant'Anna di Vinadio 25-01-2020 21:00 -1.6 64 0 1016.4
Sant'Anna di Vinadio 25-01-2020 21:10 -1.7 65 0 1016.4
Sant'Anna di Vinadio 25-01-2020 21:20 -1.9 66 0 1016.4
Sant'Anna di Vinadio 25-01-2020 21:30 -1.8 66 0 1016.4
Sant'Anna di Vinadio 25-01-2020 21:40 -1.9 66 0 1016.4
Sant'Anna di Vinadio 25-01-2020 21:50 -1.8 66 0 1016.3
Sant'Anna di Vinadio 25-01-2020 22:00 -1.9 61 0 1016.3
Sant'Anna di Vinadio 25-01-2020 22:10 -2 66 0 1016.3
Sant'Anna di Vinadio 25-01-2020 22:20 -2 66 0 1016.3
Sant'Anna di Vinadio 25-01-2020 22:30 -2 67 0 1016.4
Sant'Anna di Vinadio 25-01-2020 22:40 -2.2 67 0 1016.3
Sant'Anna di Vinadio 25-01-2020 22:50 -2.3 67 0 1016.3
Sant'Anna di Vinadio 25-01-2020 23:00 -2.1 65 0 1016.3
Sant'Anna di Vinadio 25-01-2020 23:10 -2 62 0 1016.2
Sant'Anna di Vinadio 25-01-2020 23:20 -1.8 63 0 1016.2
Sant'Anna di Vinadio 25-01-2020 23:30 -1.8 64 0 1016.2
Sant'Anna di Vinadio 25-01-2020 23:40 -1.9 64 0 1016.2
Sant'Anna di Vinadio 25-01-2020 23:50 -2 62 0 1016.2
Sant'Anna di Vinadio 26-01-2020 00:00 -2.3 62 0 1016.2
Sant'Anna di Vinadio 26-01-2020 00:10 -1.8 61 0 1016.1
Sant'Anna di Vinadio 26-01-2020 00:20 -1.5 59 0 1016.1
Sant'Anna di Vinadio 26-01-2020 00:30 -1.6 59 0 1016.1
Sant'Anna di Vinadio 26-01-2020 00:40 -1.4 59 0 1016
Sant'Anna di Vinadio 26-01-2020 00:50 -1.4 58 0 1015.9
Sant'Anna di Vinadio 26-01-2020 01:00 -1.3 57 0 1015.8
Sant'Anna di Vinadio 26-01-2020 01:10 -1.3 57 0 1015.8
Sant'Anna di Vinadio 26-01-2020 01:20 -1.3 56 0 1015.8
Sant'Anna di Vinadio 26-01-2020 01:30 -1.4 57 0 1015.7
Sant'Anna di Vinadio 26-01-2020 01:40 -1.5 58 0 1015.7
Sant'Anna di Vinadio 26-01-2020 01:50 -1.5 59 0 1015.7
Sant'Anna di Vinadio 26-01-2020 02:00 -1.5 60 0 1015.7
Sant'Anna di Vinadio 26-01-2020 02:10 -1.6 60 0 1015.5
Sant'Anna di Vinadio 26-01-2020 02:20 -1.6 61 0 1015.5
Sant'Anna di Vinadio 26-01-2020 02:30 -1.4 61 0 1015.5
Sant'Anna di Vinadio 26-01-2020 02:40 -1.4 62 0 1015.5
Sant'Anna di Vinadio 26-01-2020 02:50 -1.5 64 0 1015.5
Sant'Anna di Vinadio 26-01-2020 03:00 -1.8 64 0 1015.5
Sant'Anna di Vinadio 26-01-2020 03:10 -1.8 65 0 1015.4
Sant'Anna di Vinadio 26-01-2020 03:20 -2 68 0 1015.5
Sant'Anna di Vinadio 26-01-2020 03:30 -2.1 69 0.1 1015.4
Sant'Anna di Vinadio 26-01-2020 03:40 -2.1 69 0 1015.3
Sant'Anna di Vinadio 26-01-2020 03:50 -2.1 69 0 1015.3
Sant'Anna di Vinadio 26-01-2020 04:00 -2.1 69 0 1015.3
Sant'Anna di Vinadio 26-01-2020 04:10 -2 69 0 1015.2
Sant'Anna di Vinadio 26-01-2020 04:20 -1.8 68 0 1015.2
Sant'Anna di Vinadio 26-01-2020 04:30 -1.8 67 0 1015.1
Sant'Anna di Vinadio 26-01-2020 04:40 -1.9 67 0 1015
Sant'Anna di Vinadio 26-01-2020 04:50 -1.7 67 0 1015
Sant'Anna di Vinadio 26-01-2020 05:00 -1.7 66 0 1014.9
Sant'Anna di Vinadio 26-01-2020 05:10 -1.7 66 0 1015
Sant'Anna di Vinadio 26-01-2020 05:20 -1.7 66 0 1014.9
Sant'Anna di Vinadio 26-01-2020 05:30 -1.6 66 0 1015
Sant'Anna di Vinadio 26-01-2020 05:40 -1.6 65 0 1014.9
Sant'Anna di Vinadio 26-01-2020 05:50 -1.6 66 0 1014.9
Sant'Anna di Vinadio 26-01-2020 06:00 -1.8 67 0 1014.9
Sant'Anna di Vinadio 26-01-2020 06:10 -1.7 67 0 1014.9
Sant'Anna di Vinadio 26-01-2020 06:20 -1.6 67 0 1014.9
Sant'Anna di Vinadio 26-01-2020 06:30 -1.5 65 0 1014.9
Sant'Anna di Vinadio 26-01-2020 06:40 -1.5 66 0 1014.9
Sant'Anna di Vinadio 26-01-2020 06:50 -1.5 67 0 1014.9
Sant'Anna di Vinadio 26-01-2020 07:00 -1.4 67 0 1015
Sant'Anna di Vinadio 26-01-2020 07:10 -1.4 66 0 1015
Sant'Anna di Vinadio 26-01-2020 07:20 -1.3 66 0 1015.1
Sant'Anna di Vinadio 26-01-2020 07:30 -1.4 67 0 1015.1
Sant'Anna di Vinadio 26-01-2020 07:40 -1.4 67 0 1015.1
Sant'Anna di Vinadio 26-01-2020 07:50 -1.3 67 0 1015.1
Sant'Anna di Vinadio 26-01-2020 08:00 -1.3 67 0 1015.1
Sant'Anna di Vinadio 26-01-2020 08:10 -1.3 69 0 1015.2
Sant'Anna di Vinadio 26-01-2020 08:20 -1.3 70 0 1015.2
Sant'Anna di Vinadio 26-01-2020 08:30 -1.3 69 0 1015.3
Sant'Anna di Vinadio 26-01-2020 08:40 -1.2 69 0 1015.4
Sant'Anna di Vinadio 26-01-2020 08:50 -1 68 0 1015.4
Sant'Anna di Vinadio 26-01-2020 09:00 -0.9 67 0 1015.4
Sant'Anna di Vinadio 26-01-2020 09:10 -0.9 65 0 1015.4
Sant'Anna di Vinadio 26-01-2020 09:20 -0.8 65 0 1015.5
Sant'Anna di Vinadio 26-01-2020 09:30 -0.8 66 0 1015.5
Sant'Anna di Vinadio 26-01-2020 09:40 -1 67 0 1015.6
Sant'Anna di Vinadio 26-01-2020 09:50 -1.1 67 0 1015.7
Sant'Anna di Vinadio 26-01-2020 10:00 -0.9 67 0 1015.7
Sant'Anna di Vinadio 26-01-2020 10:10 -0.9 66 0 1015.7
Sant'Anna di Vinadio 26-01-2020 10:20 -1.1 68 0 1015.8
Sant'Anna di Vinadio 26-01-2020 10:30 -1 68 0 1015.9
Sant'Anna di Vinadio 26-01-2020 10:40 -0.8 66 0 1015.8
Sant'Anna di Vinadio 26-01-2020 10:50 -1 66 0 1015.8
Sant'Anna di Vinadio 26-01-2020 11:00 -1.1 67 0 1015.9
Sant'Anna di Vinadio 26-01-2020 11:10 -0.5 66 0 1016
Sant'Anna di Vinadio 26-01-2020 11:20 -0.4 65 0 1016
Sant'Anna di Vinadio 26-01-2020 11:30 -0.5 63 0 1016
Sant'Anna di Vinadio 26-01-2020 11:40 -0.6 64 0 1016.1
Sant'Anna di Vinadio 26-01-2020 11:50 -0.6 65 0 1016
Sant'Anna di Vinadio 26-01-2020 12:00 -0.6 64 0 1016
Sant'Anna di Vinadio 26-01-2020 12:10 -0.4 64 0 1015.8
Sant'Anna di Vinadio 26-01-2020 12:20 -0.4 63 0 1015.8
Sant'Anna di Vinadio 26-01-2020 12:30 -0.4 62 0 1015.8
Sant'Anna di Vinadio 26-01-2020 12:40 -0.6 63 0 1015.8
Sant'Anna di Vinadio 26-01-2020 12:50 -0.4 63 0 1015.6
Sant'Anna di Vinadio 26-01-2020 13:00 -0.5 62 0 1015.6
Sant'Anna di Vinadio 26-01-2020 13:10 -0.5 62 0 1015.5
Sant'Anna di Vinadio 26-01-2020 13:20 -0.5 62 0 1015.5
Sant'Anna di Vinadio 26-01-2020 13:30 -0.6 64 0 1015.5
Sant'Anna di Vinadio 26-01-2020 13:40 -0.7 64 0 1015.4
Sant'Anna di Vinadio 26-01-2020 13:50 -0.7 63 0 1015.3
Sant'Anna di Vinadio 26-01-2020 14:00 -0.7 64 0 1015.3
Sant'Anna di Vinadio 26-01-2020 14:10 -0.8 65 0 1015.2
Sant'Anna di Vinadio 26-01-2020 14:20 -0.8 64 0 1015.2
Sant'Anna di Vinadio 26-01-2020 14:30 -0.4 63 0 1015
Sant'Anna di Vinadio 26-01-2020 14:40 -0.3 61 0 1015
Sant'Anna di Vinadio 26-01-2020 14:50 -0.3 60 0 1014.9
Sant'Anna di Vinadio 26-01-2020 15:00 -0.4 61 0 1014.9
Sant'Anna di Vinadio 26-01-2020 15:10 -0.3 60 0 1014.8
Sant'Anna di Vinadio 26-01-2020 15:20 -0.3 60 0 1014.8
Sant'Anna di Vinadio 26-01-2020 15:30 -0.3 60 0 1014.8
Sant'Anna di Vinadio 26-01-2020 15:40 -0.4 61 0 1014.8
Sant'Anna di Vinadio 26-01-2020 15:50 -0.5 61 0 1014.8
Sant'Anna di Vinadio 26-01-2020 16:00 -0.4 59 0 1014.7
Sant'Anna di Vinadio 26-01-2020 16:10 -0.3 59 0 1014.7
Sant'Anna di Vinadio 26-01-2020 16:20 -0.3 59 0 1014.6
Sant'Anna di Vinadio 26-01-2020 16:30 -0.3 60 0 1014.6
Sant'Anna di Vinadio 26-01-2020 16:40 -0.5 61 0 1014.6
Sant'Anna di Vinadio 26-01-2020 16:50 -0.6 62 0 1014.6
Sant'Anna di Vinadio 26-01-2020 17:00 -0.7 65 0 1014.6
Sant'Anna di Vinadio 26-01-2020 17:10 -0.8 64 0 1014.6
Sant'Anna di Vinadio 26-01-2020 17:20 -0.9 65 0 1014.6
Sant'Anna di Vinadio 26-01-2020 17:30 -0.9 65 0 1014.6
Sant'Anna di Vinadio 26-01-2020 17:40 -1 66 0 1014.6
Sant'Anna di Vinadio 26-01-2020 17:50 -1.1 66 0 1014.6
Sant'Anna di Vinadio 26-01-2020 18:00 -1.2 67 0 1014.7
Sant'Anna di Vinadio 26-01-2020 18:10 -1.2 67 0 1014.7
Sant'Anna di Vinadio 26-01-2020 18:20 -1.2 67 0 1014.7
Sant'Anna di Vinadio 26-01-2020 18:30 -1.2 67 0 1014.6
Sant'Anna di Vinadio 26-01-2020 18:40 -1.3 67 0 1014.6
Sant'Anna di Vinadio 26-01-2020 18:50 -1.4 67 0 1014.7
Sant'Anna di Vinadio 26-01-2020 19:00 -1.5 66 0 1014.7
Sant'Anna di Vinadio 26-01-2020 19:10 -1.6 66 0 1014.7
Sant'Anna di Vinadio 26-01-2020 19:20 -1.6 65 0 1014.8
Sant'Anna di Vinadio 26-01-2020 19:30 -1.7 64 0 1014.9
Sant'Anna di Vinadio 26-01-2020 19:40 -1.6 63 0 1014.9
Sant'Anna di Vinadio 26-01-2020 19:50 -1.9 64 0 1014.9
Sant'Anna di Vinadio 26-01-2020 20:00 -2.2 65 0 1015
Sant'Anna di Vinadio 26-01-2020 20:10 -2.1 66 0 1015
Sant'Anna di Vinadio 26-01-2020 20:20 -2.1 65 0 1014.9
Sant'Anna di Vinadio 26-01-2020 20:30 -2.1 64 0 1015
Sant'Anna di Vinadio 26-01-2020 20:40 -2.1 63 0 1015
Sant'Anna di Vinadio 26-01-2020 20:50 -1.7 60 0 1014.9
Sant'Anna di Vinadio 26-01-2020 21:00 -1.8 57 0 1014.9
Sant'Anna di Vinadio 26-01-2020 21:10 -1.7 54 0 1014.9
Sant'Anna di Vinadio 26-01-2020 21:20 -1.5 53 0 1014.9
Sant'Anna di Vinadio 26-01-2020 21:30 -1.5 51 0 1014.9
Sant'Anna di Vinadio 26-01-2020 21:40 -1.6 52 0 1015
Sant'Anna di Vinadio 26-01-2020 21:50 -1.9 53 0 1015
Sant'Anna di Vinadio 26-01-2020 22:00 -1.8 53 0 1015
Sant'Anna di Vinadio 26-01-2020 22:10 -1.9 51 0 1014.9
Sant'Anna di Vinadio 26-01-2020 22:20 -1.9 51 0 1015
Sant'Anna di Vinadio 26-01-2020 22:30 -1.9 54 0 1015
Sant'Anna di Vinadio 26-01-2020 22:40 -1.9 55 0 1014.9
Sant'Anna di Vinadio 26-01-2020 22:50 -2 54 0 1014.8
Sant'Anna di Vinadio 26-01-2020 23:00 -2 54 0 1014.8
Sant'Anna di Vinadio 26-01-2020 23:10 -2.4 54 0 1014.9
Sant'Anna di Vinadio 26-01-2020 23:20 -2.4 54 0 1014.9
Sant'Anna di Vinadio 26-01-2020 23:30 -2.3 53 0 1014.9
Sant'Anna di Vinadio 26-01-2020 23:40 -2.1 53 0 1014.9
Sant'Anna di Vinadio 26-01-2020 23:50 -1.8 52 0 1014.9
Sant'Anna di Vinadio 27-01-2020 00:00 -1.8 51 0 1014.9
Sant'Anna di Vinadio 27-01-2020 00:10 -1.8 49 0 1014.9
Sant'Anna di Vinadio 27-01-2020 00:20 -2.1 49 0 1014.9
Sant'Anna di Vinadio 27-01-2020 00:30 -2 50 0 1014.9
Sant'Anna di Vinadio 27-01-2020 00:40 -2 50 0 1014.9
Sant'Anna di Vinadio 27-01-2020 00:50 -1.8 49 0 1014.9
Sant'Anna di Vinadio 27-01-2020 01:00 -1.8 47 0 1014.8
Sant'Anna di Vinadio 27-01-2020 01:10 -1.7 46 0 1014.7
Sant'Anna di Vinadio 27-01-2020 01:20 -1.6 45 0 1014.7
Sant'Anna di Vinadio 27-01-2020 01:30 -1.6 45 0 1014.6
Sant'Anna di Vinadio 27-01-2020 01:40 -1.5 45 0 1014.6
Sant'Anna di Vinadio 27-01-2020 01:50 -1.4 44 0 1014.5
Sant'Anna di Vinadio 27-01-2020 02:00 -1.4 42 0 1014.5
Sant'Anna di Vinadio 27-01-2020 02:10 -1.5 42 0 1014.4
Sant'Anna di Vinadio 27-01-2020 02:20 -1.4 42 0 1014.5
Sant'Anna di Vinadio 27-01-2020 02:30 -1.3 41 0 1014.5
Sant'Anna di Vinadio 27-01-2020 02:40 -1.4 41 0 1014.5
Sant'Anna di Vinadio 27-01-2020 02:50 -1.2 40 0 1014.4
Sant'Anna di Vinadio 27-01-2020 03:00 -1.1 39 0 1014.4
Sant'Anna di Vinadio 27-01-2020 03:10 -1.1 38 0 1014.3
Sant'Anna di Vinadio 27-01-2020 03:20 -1.1 38 0 1014.3
Sant'Anna di Vinadio 27-01-2020 03:30 -1.3 38 0 1014.3
Sant'Anna di Vinadio 27-01-2020 03:40 -1.3 37 0 1014.2
Sant'Anna di Vinadio 27-01-2020 03:50 -1.2 37 0 1014.3
Sant'Anna di Vinadio 27-01-2020 04:00 -1.3 37 0 1014.3
Sant'Anna di Vinadio 27-01-2020 04:10 -1.3 38 0 1014.2
Sant'Anna di Vinadio 27-01-2020 04:20 -1.5 38 0 1014.1
Sant'Anna di Vinadio 27-01-2020 04:30 -1.2 37 0 1014
Sant'Anna di Vinadio 27-01-2020 04:40 -1.2 34 0 1014
Sant'Anna di Vinadio 27-01-2020 04:50 -1.2 36 0 1014.1
Sant'Anna di Vinadio 27-01-2020 05:00 -1.5 36 0 1014
Sant'Anna di Vinadio 27-01-2020 05:10 -1.1 27 0 1014.1
Sant'Anna di Vinadio 27-01-2020 05:20 -1.1 29 0 1014.1
Sant'Anna di Vinadio 27-01-2020 05:30 -1.2 33 0 1014.2
Sant'Anna di Vinadio 27-01-2020 05:40 -1.5 35 0 1014.2
Sant'Anna di Vinadio 27-01-2020 05:50 -1.6 34 0 1014
Sant'Anna di Vinadio 27-01-2020 06:00 -1.5 28 0 1014
Sant'Anna di Vinadio 27-01-2020 06:10 -1.5 27 0 1013.9
Sant'Anna di Vinadio 27-01-2020 06:20 -1.6 26 0 1014.1
Sant'Anna di Vinadio 27-01-2020 06:30 -1.7 26 0 1014.1
Sant'Anna di Vinadio 27-01-2020 06:40 -2 26 0 1014.1
Sant'Anna di Vinadio 27-01-2020 06:50 -1.9 25 0 1014
Sant'Anna di Vinadio 27-01-2020 07:00 -1.7 24 0 1014.1
Sant'Anna di Vinadio 27-01-2020 07:10 -1.6 23 0 1014.1
Sant'Anna di Vinadio 27-01-2020 07:20 -1.5 22 0 1014.1
Sant'Anna di Vinadio 27-01-2020 07:30 -1.5 22 0 1014.2
Sant'Anna di Vinadio 27-01-2020 07:40 -1.3 22 0 1014.2
Sant'Anna di Vinadio 27-01-2020 07:50 -1.2 22 0 1014.3
Sant'Anna di Vinadio 27-01-2020 08:00 -1.4 23 0 1014.3
Sant'Anna di Vinadio 27-01-2020 08:10 -1.4 22 0 1014.3
Sant'Anna di Vinadio 27-01-2020 08:20 -0.6 20 0 1014.2
Sant'Anna di Vinadio 27-01-2020 08:30 -0.4 17 0 1014.3
Sant'Anna di Vinadio 27-01-2020 08:40 -0.2 16 0 1014.3
Sant'Anna di Vinadio 27-01-2020 08:50 0.7 16 0 1014.3
Sant'Anna di Vinadio 27-01-2020 09:00 1.6 15 0 1014.4
Sant'Anna di Vinadio 27-01-2020 09:10 1.7 16 0 1014.4
Sant'Anna di Vinadio 27-01-2020 09:20 2 14 0 1014.4
Sant'Anna di Vinadio 27-01-2020 09:30 2.9 14 0 1014.4
Sant'Anna di Vinadio 27-01-2020 09:40 3.5 13 0 1014.2
Sant'Anna di Vinadio 27-01-2020 09:50 4.3 13 0 1014.3
Sant'Anna di Vinadio 27-01-2020 10:00 3.5 13 0 1014.3
Sant'Anna di Vinadio 27-01-2020 10:10 3.6 14 0 1014.3
Sant'Anna di Vinadio 27-01-2020 10:20 3.6 15 0 1014.2
Sant'Anna di Vinadio 27-01-2020 10:30 3.9 15 0 1014.3
Sant'Anna di Vinadio 27-01-2020 10:40 3.8 17 0 1014.4
Sant'Anna di Vinadio 27-01-2020 10:50 3.4 17 0 1014.4
Sant'Anna di Vinadio 27-01-2020 11:00 3 17 0 1014.5
Sant'Anna di Vinadio 27-01-2020 11:10 3 17 0 1014.6
Sant'Anna di Vinadio 27-01-2020 11:20 2.9 18 0 1014.6
Sant'Anna di Vinadio 27-01-2020 11:30 2.8 19 0 1014.6
Sant'Anna di Vinadio 27-01-2020 11:40 3 19 0 1014.6
Sant'Anna di Vinadio 27-01-2020 11:50 2.9 20 0 1014.6
Sant'Anna di Vinadio 27-01-2020 12:00 2.8 19 0 1014.4
Sant'Anna di Vinadio 27-01-2020 12:10 3 18 0 1014.4
Sant'Anna di Vinadio 27-01-2020 12:20 3 19 0 1014.3
Sant'Anna di Vinadio 27-01-2020 12:30 3 22 0 1014.3
Sant'Anna di Vinadio 27-01-2020 12:40 2.9 22 0 1014.2
Sant'Anna di Vinadio 27-01-2020 12:50 2.7 25 0 1014
Sant'Anna di Vinadio 27-01-2020 13:00 2.6 27 0 1013.9
Sant'Anna di Vinadio 27-01-2020 13:10 2.6 27 0 1013.9
Sant'Anna di Vinadio 27-01-2020 13:20 2.2 28 0 1013.9
Sant'Anna di Vinadio 27-01-2020 13:30 2.2 29 0 1013.9
Sant'Anna di Vinadio 27-01-2020 13:40 2.1 30 0 1013.9
Sant'Anna di Vinadio 27-01-2020 13:50 1.8 31 0 1013.8
Sant'Anna di Vinadio 27-01-2020 14:00 1.7 33 0 1013.7
Sant'Anna di Vinadio 27-01-2020 14:10 1.8 33 0 1013.6
Sant'Anna di Vinadio 27-01-2020 14:20 1.7 34 0 1013.5
Sant'Anna di Vinadio 27-01-2020 14:30 1.5 33 0 1013.4
Sant'Anna di Vinadio 27-01-2020 14:40 1.3 35 0 1013.4
Sant'Anna di Vinadio 27-01-2020 14:50 1.2 37 0 1013.4
Sant'Anna di Vinadio 27-01-2020 15:00 1.1 39 0 1013.4
Sant'Anna di Vinadio 27-01-2020 15:10 1.1 38 0 1013.4
Sant'Anna di Vinadio 27-01-2020 15:20 1 40 0 1013.4
Sant'Anna di Vinadio 27-01-2020 15:30 0.7 40 0 1013.3
Sant'Anna di Vinadio 27-01-2020 15:40 0.7 42 0 1013.2
Sant'Anna di Vinadio 27-01-2020 15:50 0.5 43 0 1013.2
Sant'Anna di Vinadio 27-01-2020 16:00 0.4 43 0 1013.1
Sant'Anna di Vinadio 27-01-2020 16:10 0.3 41 0 1013.1
Sant'Anna di Vinadio 27-01-2020 16:20 0.2 44 0 1013
Sant'Anna di Vinadio 27-01-2020 16:30 0 45 0 1013
Sant'Anna di Vinadio 27-01-2020 16:40 0 44 0 1013
Sant'Anna di Vinadio 27-01-2020 16:50 -0.2 44 0 1012.9
Sant'Anna di Vinadio 27-01-2020 17:00 -0.3 45 0 1012.7
Sant'Anna di Vinadio 27-01-2020 17:10 -0.3 49 0 1012.6
Sant'Anna di Vinadio 27-01-2020 17:20 -0.6 51 0 1012.5
Sant'Anna di Vinadio 27-01-2020 17:30 -0.6 50 0 1012.5
Sant'Anna di Vinadio 27-01-2020 17:40 -0.7 51 0 1012.4
Sant'Anna di Vinadio 27-01-2020 17:50 -0.8 51 0 1012.4
Sant'Anna di Vinadio 27-01-2020 18:00 -0.8 51 0 1012.3
Sant'Anna di Vinadio 27-01-2020 18:10 -0.9 52 0 1012.5
Sant'Anna di Vinadio 27-01-2020 18:20 -1 53 0 1012.5
Sant'Anna di Vinadio 27-01-2020 18:30 -1.2 55 0 1012.6
Sant'Anna di Vinadio 27-01-2020 18:40 -1.3 55 0 1012.6
Sant'Anna di Vinadio 27-01-2020 18:50 -1.4 55 0 1012.5
Sant'Anna di Vinadio 27-01-2020 19:00 -1.3 54 0 1012.4
Sant'Anna di Vinadio 27-01-2020 19:10 -1.2 53 0 1012.3
Sant'Anna di Vinadio 27-01-2020 19:20 -1.1 52 0 1012.2
Sant'Anna di Vinadio 27-01-2020 19:30 -0.7 50 0 1012
Sant'Anna di Vinadio 27-01-2020 19:40 -0.5 45 0 1011.9
Sant'Anna di Vinadio 27-01-2020 19:50 -0.3 44 0 1011.9
Sant'Anna di Vinadio 27-01-2020 20:00 -0.2 45 0 1011.9
Sant'Anna di Vinadio 27-01-2020 20:10 -0.4 49 0 1012.1
Sant'Anna di Vinadio 27-01-2020 20:20 -0.8 50 0 1012.1
Sant'Anna di Vinadio 27-01-2020 20:30 -1.1 51 0 1012
Sant'Anna di Vinadio 27-01-2020 20:40 -0.9 51 0 1012
Sant'Anna di Vinadio 27-01-2020 20:50 -0.9 50 0 1011.8
Sant'Anna di Vinadio 27-01-2020 21:00 -0.7 49 0 1011.6
Sant'Anna di Vinadio 27-01-2020 21:10 -0.9 55 0 1011.9
Sant'Anna di Vinadio 27-01-2020 21:20 -1.5 57 0 1012
Sant'Anna di Vinadio 27-01-2020 21:30 -1.7 60 0 1012
Sant'Anna di Vinadio 27-01-2020 21:40 -1.8 61 0 1012
Sant'Anna di Vinadio 27-01-2020 21:50 -1.7 61 0 1012
Sant'Anna di Vinadio 27-01-2020 22:00 -1.7 62 0 1011.7
Sant'Anna di Vinadio 27-01-2020 22:10 -1.9 64 0 1011.8
Sant'Anna di Vinadio 27-01-2020 22:20 -1.8 65 0 1011.7
Sant'Anna di Vinadio 27-01-2020 22:30 -1.6 65 0 1011.6
Sant'Anna di Vinadio 27-01-2020 22:40 -1.6 65 0 1011.4
Sant'Anna di Vinadio 27-01-2020 22:50 -1.8 66 0 1011.7
Sant'Anna di Vinadio 27-01-2020 23:00 -1.8 67 0 1011.8
Sant'Anna di Vinadio 27-01-2020 23:10 -1.7 66 0 1011.8
Sant'Anna di Vinadio 27-01-2020 23:20 -1.5 66 0 1011.6
Sant'Anna di Vinadio 27-01-2020 23:30 -1.4 66 0 1011.5
Sant'Anna di Vinadio 27-01-2020 23:40 -1.4 65 0 1011.5
Sant'Anna di Vinadio 27-01-2020 23:50 -1.4 67 0 1011.6
Sant'Anna di Vinadio 28-01-2020 00:00 -1.7 70 0 1011.5
Sant'Anna di Vinadio 28-01-2020 00:10 -1.7 71 0 1011.3
Sant'Anna di Vinadio 28-01-2020 00:20 -1.3 71 0 1011.1
Sant'Anna di Vinadio 28-01-2020 00:30 -1.1 69 0.1 1011.1
Sant'Anna di Vinadio 28-01-2020 00:40 -0.9 66 0 1011
Sant'Anna di Vinadio 28-01-2020 00:50 -0.9 66 0 1010.9
Sant'Anna di Vinadio 28-01-2020 01:00 -0.8 65 0 1010.8
Sant'Anna di Vinadio 28-01-2020 01:10 -0.9 66 0 1010.6
Sant'Anna di Vinadio 28-01-2020 01:20 -1 65 0 1010.5
Sant'Anna di Vinadio 28-01-2020 01:30 -0.8 65 0 1010.3
Sant'Anna di Vinadio 28-01-2020 01:40 -0.6 64 0 1010.2
Sant'Anna di Vinadio 28-01-2020 01:50 0 62 0 1009.9
Sant'Anna di Vinadio 28-01-2020 02:00 0.2 60 0 1009.9
Sant'Anna di Vinadio 28-01-2020 02:10 0.3 60 0 1010
Sant'Anna di Vinadio 28-01-2020 02:20 0.4 59 0 1010
Sant'Anna di Vinadio 28-01-2020 02:30 0.3 60 0 1010
Sant'Anna di Vinadio 28-01-2020 02:40 0.3 60 0 1009.8
Sant'Anna di Vinadio 28-01-2020 02:50 0.3 61 0 1009.9
Sant'Anna di Vinadio 28-01-2020 03:00 0.4 61 0 1009.8
Sant'Anna di Vinadio 28-01-2020 03:10 0.4 61 0 1009.8
Sant'Anna di Vinadio 28-01-2020 03:20 0.5 61 0 1009.7
Sant'Anna di Vinadio 28-01-2020 03:30 0.5 60 0 1009.4
Sant'Anna di Vinadio 28-01-2020 03:40 0.5 59 0 1009.4
Sant'Anna di Vinadio 28-01-2020 03:50 0.6 59 0 1009.3
Sant'Anna di Vinadio 28-01-2020 04:00 0.5 59 0 1009
Sant'Anna di Vinadio 28-01-2020 04:10 0.5 58 0 1008.8
Sant'Anna di Vinadio 28-01-2020 04:20 0.7 57 0 1008.9
Sant'Anna di Vinadio 28-01-2020 04:30 0.6 56 0 1008.9
Sant'Anna di Vinadio 28-01-2020 04:40 0.6 56 0 1008.8
Sant'Anna di Vinadio 28-01-2020 04:50 0.7 56 0 1008.9
Sant'Anna di Vinadio 28-01-2020 05:00 0.6 56 0 1008.8
Sant'Anna di Vinadio 28-01-2020 05:10 0.6 56 0 1008.8
Sant'Anna di Vinadio 28-01-2020 05:20 0.6 57 0 1008.9
Sant'Anna di Vinadio 28-01-2020 05:30 0.6 56 0 1008.7
Sant'Anna di Vinadio 28-01-2020 05:40 0.5 56 0 1008.8
Sant'Anna di Vinadio 28-01-2020 05:50 0.5 57 0 1008.5
Sant'Anna di Vinadio 28-01-2020 06:00 0.5 57 0 1008.3
Sant'Anna di Vinadio 28-01-2020 06:10 0.7 56 0 1008.2
Sant'Anna di Vinadio 28-01-2020 06:20 0.7 54 0 1008.3
Sant'Anna di Vinadio 28-01-2020 06:30 0.7 55 0 1008.3
Sant'Anna di Vinadio 28-01-2020 06:40 0.9 54 0 1008.2
Sant'Anna di Vinadio 28-01-2020 06:50 0.9 54 0 1008.2
Sant'Anna di Vinadio 28-01-2020 07:00 0.9 57 0 1008.2
Sant'Anna di Vinadio 28-01-2020 07:10 0.4 62 0 1008.2
Sant'Anna di Vinadio 28-01-2020 07:20 0.1 63 0 1008.2
Sant'Anna di Vinadio 28-01-2020 07:30 0.1 64 0 1008.3
Sant'Anna di Vinadio 28-01-2020 07:40 0 65 0 1008.2
Sant'Anna di Vinadio 28-01-2020 07:50 -0.1 67 0 1008.2
Sant'Anna di Vinadio 28-01-2020 08:00 -0.3 68 0 1008.3
Sant'Anna di Vinadio 28-01-2020 08:10 -0.4 68 0 1008.1
Sant'Anna di Vinadio 28-01-2020 08:20 -0.3 68 0 1008.1
Sant'Anna di Vinadio 28-01-2020 08:30 -0.4 70 0.1 1008.2
Sant'Anna di Vinadio 28-01-2020 08:40 -0.5 70 0.1 1008.3
Sant'Anna di Vinadio 28-01-2020 08:50 -0.6 72 0.2 1008.4
Sant'Anna di Vinadio 28-01-2020 09:00 -0.5 72 0.2 1008.5
Sant'Anna di Vinadio 28-01-2020 09:10 -0.4 71 0.2 1008.4
Sant'Anna di Vinadio 28-01-2020 09:20 -0.4 71 0 1008.3
Sant'Anna di Vinadio 28-01-2020 09:30 -0.4 71 0.1 1008.4
Sant'Anna di Vinadio 28-01-2020 09:40 -0.6 73 0.1 1008.3
Sant'Anna di Vinadio 28-01-2020 09:50 -0.6 74 0.3 1008.2
Sant'Anna di Vinadio 28-01-2020 10:00 -0.6 75 0.4 1008.1
Sant'Anna di Vinadio 28-01-2020 10:10 -0.4 74 0.2 1008.4
Sant'Anna di Vinadio 28-01-2020 10:20 -0.4 73 0.2 1008.5
Sant'Anna di Vinadio 28-01-2020 10:30 -0.5 74 0.2 1008.6
Sant'Anna di Vinadio 28-01-2020 10:40 -0.6 75 0.3 1008.9
Sant'Anna di Vinadio 28-01-2020 10:50 -0.6 75 0.2 1008.9
Sant'Anna di Vinadio 28-01-2020 11:00 -0.6 76 0.3 1008.8
Sant'Anna di Vinadio 28-01-2020 11:10 -0.7 77 0.2 1008.8
Sant'Anna di Vinadio 28-01-2020 11:20 -0.3 76 0 1008.5
Sant'Anna di Vinadio 28-01-2020 11:30 0.4 69 0.1 1008.4
Sant'Anna di Vinadio 28-01-2020 11:40 0.5 60 0 1008.6
Sant'Anna di Vinadio 28-01-2020 11:50 0.3 59 0.1 1008.3
Sant'Anna di Vinadio 28-01-2020 12:00 -0.2 65 0 1008.4
Sant'Anna di Vinadio 28-01-2020 12:10 0.2 63 0 1008.3
Sant'Anna di Vinadio 28-01-2020 12:20 0.3 54 0 1008.3
Sant'Anna di Vinadio 28-01-2020 12:30 0.6 47 0 1008.3
Sant'Anna di Vinadio 28-01-2020 12:40 0.7 42 0.1 1008.3
Sant'Anna di Vinadio 28-01-2020 12:50 0.7 41 0 1008.4
Sant'Anna di Vinadio 28-01-2020 13:00 0.6 38 0 1008.1
Sant'Anna di Vinadio 28-01-2020 13:10 0.6 36 0 1008.3
Sant'Anna di Vinadio 28-01-2020 13:20 0.4 44 0 1007.9
Sant'Anna di Vinadio 28-01-2020 13:30 -0.1 38 0 1007.7
Sant'Anna di Vinadio 28-01-2020 13:40 0.1 36 0 1007.7
Sant'Anna di Vinadio 28-01-2020 13:50 0.3 42 0 1007.4
Sant'Anna di Vinadio 28-01-2020 14:00 0.1 37 0 1007.3
Sant'Anna di Vinadio 28-01-2020 14:10 0.1 39 0 1006.8
Sant'Anna di Vinadio 28-01-2020 14:20 0.1 38 0 1006.9
Sant'Anna di Vinadio 28-01-2020 14:30 0.1 40 0 1006.8
Sant'Anna di Vinadio 28-01-2020 14:40 0.1 40 0 1006.7
Sant'Anna di Vinadio 28-01-2020 14:50 0.1 38 0 1006.7
Sant'Anna di Vinadio 28-01-2020 15:00 -0.1 45 0 1006.8
Sant'Anna di Vinadio 28-01-2020 15:10 -0.1 41 0 1007.1
Sant'Anna di Vinadio 28-01-2020 15:20 -0.1 41 0 1007.1
Sant'Anna di Vinadio 28-01-2020 15:30 -0.5 42 0 1007.4
Sant'Anna di Vinadio 28-01-2020 15:40 -0.6 43 0 1007.2
Sant'Anna di Vinadio 28-01-2020 15:50 -0.6 44 0 1006.8
Sant'Anna di Vinadio 28-01-2020 16:00 -0.8 46 0 1006.9
Sant'Anna di Vinadio 28-01-2020 16:10 -0.9 46 0 1007
Sant'Anna di Vinadio 28-01-2020 16:20 -0.6 42 0 1006.7
Sant'Anna di Vinadio 28-01-2020 16:30 -0.6 39 0 1006.4
Sant'Anna di Vinadio 28-01-2020 16:40 -0.7 43 0 1006.6
Sant'Anna di Vinadio 28-01-2020 16:50 -0.5 39 0 1006.8
Sant'Anna di Vinadio 28-01-2020 17:00 -0.7 41 0 1006.6
Sant'Anna di Vinadio 28-01-2020 17:10 -0.8 43 0 1006.3
Sant'Anna di Vinadio 28-01-2020 17:20 -0.4 38 0 1006.4
Sant'Anna di Vinadio 28-01-2020 17:30 -0.5 38 0 1006.3
Sant'Anna di Vinadio 28-01-2020 17:40 -0.7 38 0 1006.4
Sant'Anna di Vinadio 28-01-2020 17:50 -0.7 40 0 1006.6
Sant'Anna di Vinadio 28-01-2020 18:00 -0.8 41 0 1006.3
Sant'Anna di Vinadio 28-01-2020 18:10 -0.8 40 0 1006.5
Sant'Anna di Vinadio 28-01-2020 18:20 -1.1 43 0 1006.5
Sant'Anna di Vinadio 28-01-2020 18:30 -1.3 43 0 1006.8
Sant'Anna di Vinadio 28-01-2020 18:40 -1.3 44 0 1006.8
Sant'Anna di Vinadio 28-01-2020 18:50 -1.3 43 0 1006.8
Sant'Anna di Vinadio 28-01-2020 19:00 -1 42 0 1006.9
Sant'Anna di Vinadio 28-01-2020 19:10 -1.1 45 0 1007.1
Sant'Anna di Vinadio 28-01-2020 19:20 -1.2 43 0 1007
Sant'Anna di Vinadio 28-01-2020 19:30 -1 44 0 1006.9
Sant'Anna di Vinadio 28-01-2020 19:40 -1 40 0 1006.9
Sant'Anna di Vinadio 28-01-2020 19:50 -0.8 39 0 1007
Sant'Anna di Vinadio 28-01-2020 20:00 -0.7 38 0 1007

Riassuntivo giornaliero del 28-01-2020